Index of /island/2016/10/

NameLast ModifiedSize
UpParent Directory
[TXT]20161001.0006.49.DM.AltitudeB.7787.htm2019-11-05 22:13 112k
[TXT]20161001.0015.53.DM.AnotherBrickInDeW00T.7787.htm2019-11-05 22:13 112k
[TXT]20161001.0023.19.DM.Avghazer.7787.htm2019-11-05 22:13 88k
[TXT]20161001.0031.49.DM.Bakuretsu-se.7787.htm2019-11-05 22:13 84k
[TXT]20161001.0040.06.DM.BoneMill][st.7787.htm2019-11-05 22:13 72k
[TXT]20161001.0047.22.DM.BorneoSE.7787.htm2019-11-05 22:13 108k
[TXT]20161001.0057.09.DM.Bralta.7787.htm2019-11-05 22:13 80k
[TXT]20161001.0105.33.DM.Cityzen-se.7787.htm2019-11-05 22:13 104k
[TXT]20161001.0125.22.DM.Coke.7787.htm2019-11-05 22:13 112k
[TXT]20161001.0145.43.DM.CrypticSE.7787.htm2019-11-05 22:13 76k
[TXT]20161001.0153.16.DM.Curse][-te.7787.htm2019-11-05 22:13 116k
[TXT]20161001.0204.28.DM.DarkMindII.7787.htm2019-11-05 22:13 132k
[TXT]20161001.0215.27.DM.DeckHalf420.7787.htm2019-11-05 22:13 128k
[TXT]20161001.0225.26.DM.Distinctive.7787.htm2019-11-05 22:13 112k
[TXT]20161001.0233.58.DM.Draven.7787.htm2019-11-05 22:13 116k
[TXT]20161001.0243.51.DM.EmpoweredIV.7787.htm2019-11-05 22:13 100k
[TXT]20161001.0252.05.DM.Equilibrium-SE.7787.htm2019-11-05 22:13 80k
[TXT]20161001.0259.19.DM.Fade-se.7787.htm2019-11-05 22:13 84k
[TXT]20161001.0319.57.DM.Fear-se.7787.htm2019-11-05 22:13 64k
[TXT]20161001.0325.17.DM.Foom200.7787.htm2019-11-05 22:13 120k
[TXT]20161001.0334.42.DM.GatakaFE.7787.htm2019-11-05 22:13 84k
[TXT]20161001.0343.05.DM.GaugeLoathing.7787.htm2019-11-05 22:13 84k
[TXT]20161001.0351.00.DM.HellsGateIII.7787.htm2019-11-05 22:13 88k
[TXT]20161001.0402.07.DM.JB-Chud.7787.htm2019-11-05 22:13 104k
[TXT]20161001.0409.03.DM.Liandri.7787.htm2019-11-05 22:13 96k
[TXT]20161001.0418.06.DM.Lostlands-se.7787.htm2019-11-05 22:13 68k
[TXT]20161001.0424.22.DM.MadScientistsLair-se.7787.htm2019-11-05 22:13 76k
[TXT]20161001.0430.00.DM.Magma-se.7787.htm2019-11-05 22:13 72k
[TXT]20161001.0434.17.DM.MenaceV3-se.7787.htm2019-11-05 22:13 76k
[TXT]20161001.0439.46.DM.Mojo2013.7787.htm2019-11-05 22:13 84k
[TXT]20161001.0739.12.DM.MoonbaseSE.7787.htm2019-11-05 22:13 128k
[TXT]20161001.0848.28.DM.Nexo-se.7787.htm2019-11-05 22:13 84k
[TXT]20161001.0854.07.DM.Olden-se.7787.htm2019-11-05 22:13 68k
[TXT]20161001.0900.34.DM.Outland-ve.7787.htm2019-11-05 22:13 68k
[TXT]20161001.0906.14.DM.Pier41se.7787.htm2019-11-05 22:13 76k
[TXT]20161001.0912.42.DM.Quartet-se.7787.htm2019-11-05 22:13 68k
[TXT]20161001.0919.07.DM.RadStorm-te.7787.htm2019-11-05 22:13 60k
[TXT]20161001.0937.41.DM.RaskasarSE.7787.htm2019-11-05 22:14 108k
[TXT]20161001.0943.07.DM.Revenge-fe.7787.htm2019-11-05 22:14 60k
[TXT]20161001.0948.23.DM.Sepulchrum-LP-se.7787.htm2019-11-05 22:14 72k
[TXT]20161001.0952.55.DM.Serenity.7787.htm2019-11-05 22:14 56k
[TXT]20161001.0957.19.DM.SleepyTownTE.7787.htm2019-11-05 22:14 92k
[TXT]20161001.1001.55.DM.StalwartXL.7787.htm2019-11-05 22:14 72k
[TXT]20161001.1025.38.DM.Tempest.7787.htm2019-11-05 22:14 120k
[TXT]20161001.1038.39.DM.TerraIII.7787.htm2019-11-05 22:14 120k
[TXT]20161001.1056.57.DM.Toll.7787.htm2019-11-05 22:14 80k
[TXT]20161001.1106.55.DM.ubUrbanSE.7787.htm2019-11-05 22:14 72k
[TXT]20161001.1112.16.DM.VengadorV.7787.htm2019-11-05 22:14 116k
[TXT]20161001.1118.17.DM.VerdanaTE.7787.htm2019-11-05 22:14 76k
[TXT]20161001.1124.11.DM.Viridian-TOURNEY.7787.htm2019-11-05 22:14 64k
[TXT]20161001.1128.54.DM.Xymoron-VI.7787.htm2019-11-05 22:14 72k
[TXT]20161001.1133.20.DM.Z-Axis-Inspector.7787.htm2019-11-05 22:14 64k
[TXT]20161001.1137.51.DM.ZerckTE.7787.htm2019-11-05 22:14 68k
[TXT]20161001.1142.40.DM.AggressiveII.7787.htm2019-11-05 22:14 76k
[TXT]20161001.1147.40.DM.Agony.7787.htm2019-11-05 22:14 80k
[TXT]20161001.1153.11.DM.AloneintheDark.7787.htm2019-11-05 22:14 84k
[TXT]20161001.1325.50.DM.AnotherBrickInDeW00T.7787.htm2019-11-05 22:14 112k
[TXT]20161001.1333.30.DM.AnUphillBattle-se.7787.htm2019-11-05 22:14 68k
[TXT]20161001.1338.39.DM.Bakuretsu-se.7787.htm2019-11-05 22:14 80k
[TXT]20161001.1346.25.DM.BoneMill][st.7787.htm2019-11-05 22:14 72k
[TXT]20161001.1353.38.DM.BorneoSE.7787.htm2019-11-05 22:14 100k
[TXT]20161001.1400.11.DM.Bridge.7787.htm2019-11-05 22:14 80k
[TXT]20161001.1408.17.DM.Cityzen-se.7787.htm2019-11-05 22:14 80k
[TXT]20161001.1414.19.DM.Coke.7787.htm2019-11-05 22:14 140k
[TXT]20161001.1534.33.DM.CrypticSE.7787.htm2019-11-05 22:14 96k
[TXT]20161001.1543.54.DM.Curse][-te.7787.htm2019-11-05 22:14 100k
[TXT]20161001.1555.14.DM.DarkMindII.7787.htm2019-11-05 22:14 76k
[TXT]20161001.1605.16.DM.DeckHalf420.7787.htm2019-11-05 22:14 128k
[TXT]20161001.1619.23.DM.Distinctive.7787.htm2019-11-05 22:14 104k
[TXT]20161001.1630.41.DM.Draven.7787.htm2019-11-05 22:14 100k
[TXT]20161001.1643.04.DM.EmpoweredIV.7787.htm2019-11-05 22:14 76k
[TXT]20161001.1652.46.DM.Equilibrium-SE.7787.htm2019-11-05 22:14 84k
[TXT]20161001.1702.02.DM.Fade-se.7787.htm2019-11-05 22:14 84k
[TXT]20161001.1729.57.DM.Fear-se.7787.htm2019-11-05 22:14 76k
[TXT]20161001.1736.35.DM.Foom200.7787.htm2019-11-05 22:14 104k
[TXT]20161001.1742.01.DM.GatakaFE.7787.htm2019-11-05 22:14 100k
[TXT]20161001.1752.39.DM.GaugeLoathing.7787.htm2019-11-05 22:14 100k
[TXT]20161001.1800.07.DM.HellsGateIII.7787.htm2019-11-05 22:14 92k
[TXT]20161001.1808.25.DM.JB-Chud.7787.htm2019-11-05 22:14 128k
[TXT]20161001.1815.30.DM.Liandri.7787.htm2019-11-05 22:14 128k
[TXT]20161001.1826.02.DM.Lostlands-se.7787.htm2019-11-05 22:14 88k
[TXT]20161001.1832.41.DM.MadScientistsLair-se.7787.htm2019-11-05 22:14 120k
[TXT]20161001.1843.48.DM.Magma-se.7787.htm2019-11-05 22:14 100k
[TXT]20161001.1852.20.DM.MenaceV3-se.7787.htm2019-11-05 22:14 96k
[TXT]20161001.1859.37.DM.Mojo2013.7787.htm2019-11-05 22:14 132k
[TXT]20161001.1911.59.DM.MoonbaseSE.7787.htm2019-11-05 22:14 128k
[TXT]20161001.1919.19.DM.Nexo-se.7787.htm2019-11-05 22:14 96k
[TXT]20161001.1927.59.DM.Olden-se.7787.htm2019-11-05 22:14 88k
[TXT]20161001.1935.18.DM.Outland-ve.7787.htm2019-11-05 22:14 96k
[TXT]20161001.1946.08.DM.Pier41se.7787.htm2019-11-05 22:14 96k
[TXT]20161001.1953.41.DM.Quartet-se.7787.htm2019-11-05 22:14 68k
[TXT]20161001.2000.37.DM.RadStorm-te.7787.htm2019-11-05 22:14 72k
[TXT]20161001.2005.15.DM.RaskasarSE.7787.htm2019-11-05 22:14 108k
[TXT]20161001.2035.10.DM.Revenge-fe.7787.htm2019-11-05 22:14 64k
[TXT]20161001.2040.43.DM.Sepulchrum-LP-se.7787.htm2019-11-05 22:14 72k
[TXT]20161001.2045.39.DM.Serenity.7787.htm2019-11-05 22:14 72k
[TXT]20161001.2052.12.DM.SleepyTownTE.7787.htm2019-11-05 22:14 100k
[TXT]20161001.2056.31.DM.StalwartXL.7787.htm2019-11-05 22:14 72k
[TXT]20161001.2102.10.DM.Tempest.7787.htm2019-11-05 22:14 92k
[TXT]20161001.2108.33.DM.TerraIII.7787.htm2019-11-05 22:14 116k
[TXT]20161001.2120.14.DM.Toll.7787.htm2019-11-05 22:14 72k
[TXT]20161001.2125.41.DM.ubUrbanSE.7787.htm2019-11-05 22:14 96k
[TXT]20161001.2132.36.DM.VengadorV.7787.htm2019-11-05 22:14 92k
[TXT]20161001.2139.46.DM.VerdanaTE.7787.htm2019-11-05 22:14 76k
[TXT]20161001.2145.43.DM.Viridian-TOURNEY.7787.htm2019-11-05 22:14 72k
[TXT]20161001.2152.57.DM.Xymoron-VI.7787.htm2019-11-05 22:14 80k
[TXT]20161001.2159.55.DM.Z-Axis-Inspector.7787.htm2019-11-05 22:14 84k
[TXT]20161001.2209.56.DM.ZerckTE.7787.htm2019-11-05 22:14 80k
[TXT]20161001.2217.36.DM.AggressiveII.7787.htm2019-11-05 22:14 112k
[TXT]20161001.2228.43.DM.Agony.7787.htm2019-11-05 22:14 76k
[TXT]20161001.2233.31.DM.AloneintheDark.7787.htm2019-11-05 22:14 72k
[TXT]20161001.2238.55.DM.AnotherBrickInDeW00T.7787.htm2019-11-05 22:14 100k
[TXT]20161001.2243.33.DM.AnUphillBattle-se.7787.htm2019-11-05 22:14 64k
[TXT]20161001.2249.06.DM.Bakuretsu-se.7787.htm2019-11-05 22:14 76k
[TXT]20161001.2254.35.DM.BoneMill][st.7787.htm2019-11-05 22:14 72k
[TXT]20161001.2259.46.DM.BorneoSE.7787.htm2019-11-05 22:14 88k
[TXT]20161001.2303.40.DM.Bridge.7787.htm2019-11-05 22:14 76k
[TXT]20161001.2309.52.DM.Cityzen-se.7787.htm2019-11-05 22:14 96k
[TXT]20161001.2315.32.DM.Coke.7787.htm2019-11-05 22:14 76k
[TXT]20161001.2319.55.DM.CrypticSE.7787.htm2019-11-05 22:14 68k
[TXT]20161001.2324.24.DM.Curse][-te.7787.htm2019-11-05 22:14 92k
[TXT]20161001.2336.22.DM.DarkMindII.7787.htm2019-11-05 22:14 108k
[TXT]20161001.2346.37.DM.DeckHalf420.7787.htm2019-11-05 22:14 112k
[TXT]20161001.2352.41.DM.Distinctive.7787.htm2019-11-05 22:14 80k
[TXT]20161001.2359.03.DM.Draven.7787.htm2019-11-05 22:14 68k
[TXT]20161002.0005.33.DM.EmpoweredIV.7787.htm2019-11-05 22:14 76k
[TXT]20161002.0015.03.DM.Equilibrium-SE.7787.htm2019-11-05 22:14 84k
[TXT]20161002.0023.50.DM.Fade-se.7787.htm2019-11-05 22:14 84k
[TXT]20161002.0209.06.DM.Fear-se.7787.htm2019-11-05 22:14 68k
[TXT]20161002.0422.23.DM.Foom200.7787.htm2019-11-05 22:14 104k
[TXT]20161002.0428.49.DM.GatakaFE.7787.htm2019-11-05 22:14 80k
[TXT]20161002.0436.08.DM.GaugeLoathing.7787.htm2019-11-05 22:14 80k
[TXT]20161002.0442.24.DM.HellsGateIII.7787.htm2019-11-05 22:14 108k
[TXT]20161002.0453.03.DM.JB-Chud.7787.htm2019-11-05 22:14 104k
[TXT]20161002.0458.36.DM.Liandri.7787.htm2019-11-05 22:14 92k
[TXT]20161002.0506.26.DM.Lostlands-se.7787.htm2019-11-05 22:14 76k
[TXT]20161002.0513.13.DM.MadScientistsLair-se.7787.htm2019-11-05 22:14 92k
[TXT]20161002.0521.24.DM.Magma-se.7787.htm2019-11-05 22:14 64k
[TXT]20161002.0756.21.DM.MenaceV3-se.7787.htm2019-11-05 22:14 76k
[TXT]20161002.0801.29.DM.Mojo2013.7787.htm2019-11-05 22:15 80k
[TXT]20161002.0807.18.DM.MoonbaseSE.7787.htm2019-11-05 22:15 108k
[TXT]20161002.0813.35.DM.Nexo-se.7787.htm2019-11-05 22:15 72k
[TXT]20161002.0819.41.DM.Olden-se.7787.htm2019-11-05 22:15 60k
[TXT]20161002.0833.51.DM.Outland-ve.7787.htm2019-11-05 22:15 64k
[TXT]20161002.0838.37.DM.Pier41se.7787.htm2019-11-05 22:15 60k
[TXT]20161002.0917.47.DM.Quartet-se.7787.htm2019-11-05 22:15 72k
[TXT]20161002.0926.23.DM.RadStorm-te.7787.htm2019-11-05 22:15 64k
[TXT]20161002.0931.58.DM.RaskasarSE.7787.htm2019-11-05 22:15 112k
[TXT]20161002.0937.31.DM.Revenge-fe.7787.htm2019-11-05 22:15 64k
[TXT]20161002.0954.20.DM.Sepulchrum-LP-se.7787.htm2019-11-05 22:15 76k
[TXT]20161002.0959.16.DM.Serenity.7787.htm2019-11-05 22:15 60k
[TXT]20161002.1004.33.DM.SleepyTownTE.7787.htm2019-11-05 22:15 104k
[TXT]20161002.1025.49.DM.StalwartXL.7787.htm2019-11-05 22:15 72k
[TXT]20161002.1030.26.DM.Tempest.7787.htm2019-11-05 22:15 100k
[TXT]20161002.1037.01.DM.TerraIII.7787.htm2019-11-05 22:15 96k
[TXT]20161002.1045.32.DM.Toll.7787.htm2019-11-05 22:15 88k
[TXT]20161002.1057.19.DM.ubUrbanSE.7787.htm2019-11-05 22:15 84k
[TXT]20161002.1148.16.DM.VengadorV.7787.htm2019-11-05 22:15 96k
[TXT]20161002.1154.00.DM.VerdanaTE.7787.htm2019-11-05 22:15 72k
[TXT]20161002.1159.40.DM.Viridian-TOURNEY.7787.htm2019-11-05 22:15 68k
[TXT]20161002.1205.18.DM.Xymoron-VI.7787.htm2019-11-05 22:15 76k
[TXT]20161002.1210.48.DM.Z-Axis-Inspector.7787.htm2019-11-05 22:15 76k
[TXT]20161002.1216.59.DM.ZerckTE.7787.htm2019-11-05 22:15 92k
[TXT]20161002.1222.46.DM.AggressiveII.7787.htm2019-11-05 22:15 96k
[TXT]20161002.1233.57.DM.Agony.7787.htm2019-11-05 22:15 84k
[TXT]20161002.1240.15.DM.AloneintheDark.7787.htm2019-11-05 22:15 104k
[TXT]20161002.1254.21.DM.AnotherBrickInDeW00T.7787.htm2019-11-05 22:15 132k
[TXT]20161002.1415.11.DM.AnUphillBattle-se.7787.htm2019-11-05 22:15 68k
[TXT]20161002.1508.24.DM.Bakuretsu-se.7787.htm2019-11-05 22:15 88k
[TXT]20161002.1525.40.DM.BoneMill][st.7787.htm2019-11-05 22:15 84k
[TXT]20161002.1535.13.DM.BorneoSE.7787.htm2019-11-05 22:15 104k
[TXT]20161002.1547.35.DM.Bridge.7787.htm2019-11-05 22:15 108k
[TXT]20161002.1558.15.DM.Cityzen-se.7787.htm2019-11-05 22:15 80k
[TXT]20161002.1605.49.DM.Coke.7787.htm2019-11-05 22:15 88k
[TXT]20161002.1614.15.DM.CrypticSE.7787.htm2019-11-05 22:15 80k
[TXT]20161002.1622.26.DM.Curse][-te.7787.htm2019-11-05 22:15 92k
[TXT]20161002.1632.40.DM.DarkMindII.7787.htm2019-11-05 22:15 68k
[TXT]20161002.1639.17.DM.DeckHalf420.7787.htm2019-11-05 22:15 96k
[TXT]20161002.1646.35.DM.Distinctive.7787.htm2019-11-05 22:15 100k
[TXT]20161002.1656.33.DM.Draven.7787.htm2019-11-05 22:15 96k
[TXT]20161002.1705.24.DM.EmpoweredIV.7787.htm2019-11-05 22:15 100k
[TXT]20161002.1717.26.DM.Equilibrium-SE.7787.htm2019-11-05 22:15 100k
[TXT]20161002.1723.22.DM.Fade-se.7787.htm2019-11-05 22:15 104k
[TXT]20161002.1732.02.DM.Fear-se.7787.htm2019-11-05 22:15 80k
[TXT]20161002.1739.25.DM.Foom200.7787.htm2019-11-05 22:15 120k
[TXT]20161002.1748.45.DM.GatakaFE.7787.htm2019-11-05 22:15 88k
[TXT]20161002.1759.24.DM.GaugeLoathing.7787.htm2019-11-05 22:15 84k
[TXT]20161002.1808.29.DM.HellsGateIII.7787.htm2019-11-05 22:15 108k
[TXT]20161002.1819.46.DM.JB-Chud.7787.htm2019-11-05 22:15 112k
[TXT]20161002.1825.46.DM.Liandri.7787.htm2019-11-05 22:15 88k
[TXT]20161002.1831.37.DM.Lostlands-se.7787.htm2019-11-05 22:15 88k
[TXT]20161002.1842.51.DM.MadScientistsLair-se.7787.htm2019-11-05 22:15 76k
[TXT]20161002.1849.47.DM.Magma-se.7787.htm2019-11-05 22:15 108k
[TXT]20161002.1859.03.DM.MenaceV3-se.7787.htm2019-11-05 22:15 116k
[TXT]20161002.1906.56.DM.Mojo2013.7787.htm2019-11-05 22:15 100k
[TXT]20161002.1915.50.DM.MoonbaseSE.7787.htm2019-11-05 22:15 124k
[TXT]20161002.1922.18.DM.Nexo-se.7787.htm2019-11-05 22:15 88k
[TXT]20161002.1928.28.DM.Olden-se.7787.htm2019-11-05 22:15 108k
[TXT]20161002.1935.28.DM.Outland-ve.7787.htm2019-11-05 22:15 60k
[TXT]20161002.1940.02.DM.Pier41se.7787.htm2019-11-05 22:15 60k
[TXT]20161002.1944.36.DM.Quartet-se.7787.htm2019-11-05 22:15 64k
[TXT]20161002.1948.53.DM.RadStorm-te.7787.htm2019-11-05 22:15 72k
[TXT]20161002.1953.18.DM.RaskasarSE.7787.htm2019-11-05 22:15 124k
[TXT]20161002.1958.10.DM.Revenge-fe.7787.htm2019-11-05 22:15 64k
[TXT]20161002.2003.38.DM.Sepulchrum-LP-se.7787.htm2019-11-05 22:15 112k
[TXT]20161002.2013.38.DM.Serenity.7787.htm2019-11-05 22:15 68k
[TXT]20161002.2019.37.DM.SleepyTownTE.7787.htm2019-11-05 22:15 96k
[TXT]20161002.2024.22.DM.StalwartXL.7787.htm2019-11-05 22:15 68k
[TXT]20161002.2028.42.DM.Tempest.7787.htm2019-11-05 22:15 92k
[TXT]20161002.2034.51.DM.TerraIII.7787.htm2019-11-05 22:15 132k
[TXT]20161002.2049.22.DM.Toll.7787.htm2019-11-05 22:15 76k
[TXT]20161002.2106.18.DM.ubUrbanSE.7787.htm2019-11-05 22:15 72k
[TXT]20161002.2112.52.DM.VengadorV.7787.htm2019-11-05 22:15 84k
[TXT]20161002.2117.45.DM.VerdanaTE.7787.htm2019-11-05 22:15 96k
[TXT]20161002.2127.02.DM.Viridian-TOURNEY.7787.htm2019-11-05 22:15 64k
[TXT]20161002.2131.55.DM.Xymoron-VI.7787.htm2019-11-05 22:15 84k
[TXT]20161002.2136.20.DM.Z-Axis-Inspector.7787.htm2019-11-05 22:15 80k
[TXT]20161002.2143.38.DM.ZerckTE.7787.htm2019-11-05 22:15 80k
[TXT]20161002.2149.10.DM.AggressiveII.7787.htm2019-11-05 22:15 92k
[TXT]20161002.2156.26.DM.Agony.7787.htm2019-11-05 22:15 76k
[TXT]20161002.2201.37.DM.AloneintheDark.7787.htm2019-11-05 22:15 80k
[TXT]20161002.2206.57.DM.AnotherBrickInDeW00T.7787.htm2019-11-05 22:15 108k
[TXT]20161002.2214.31.DM.AnUphillBattle-se.7787.htm2019-11-05 22:15 80k
[TXT]20161002.2221.20.DM.Bakuretsu-se.7787.htm2019-11-05 22:15 80k
[TXT]20161002.2228.04.DM.BoneMill][st.7787.htm2019-11-05 22:15 84k
[TXT]20161002.2236.28.DM.BorneoSE.7787.htm2019-11-05 22:15 104k
[TXT]20161002.2243.28.DM.Bridge.7787.htm2019-11-05 22:15 96k
[TXT]20161002.2253.04.DM.Cityzen-se.7787.htm2019-11-05 22:15 116k
[TXT]20161002.2302.56.DM.Coke.7787.htm2019-11-05 22:15 92k
[TXT]20161002.2311.23.DM.CrypticSE.7787.htm2019-11-05 22:15 92k
[TXT]20161002.2323.00.DM.Curse][-te.7787.htm2019-11-05 22:15 84k
[TXT]20161002.2330.22.DM.DarkMindII.7787.htm2019-11-05 22:15 76k
[TXT]20161002.2338.39.DM.DeckHalf420.7787.htm2019-11-05 22:15 100k
[TXT]20161002.2346.33.DM.Distinctive.7787.htm2019-11-05 22:15 104k
[TXT]20161002.2353.40.DM.Draven.7787.htm2019-11-05 22:15 96k
[TXT]20161003.0002.40.DM.EmpoweredIV.7787.htm2019-11-05 22:15 72k
[TXT]20161003.0010.47.DM.Equilibrium-SE.7787.htm2019-11-05 22:15 80k
[TXT]20161003.0016.21.DM.Fade-se.7787.htm2019-11-05 22:15 84k
[TXT]20161003.0024.37.DM.Fear-se.7787.htm2019-11-05 22:15 80k
[TXT]20161003.0033.43.DM.Foom200.7787.htm2019-11-05 22:15 180k
[TXT]20161003.0049.12.DM.GatakaFE.7787.htm2019-11-05 22:16 76k
[TXT]20161003.0144.59.DM.GaugeLoathing.7787.htm2019-11-05 22:16 96k
[TXT]20161003.0234.23.DM.HellsGateIII.7787.htm2019-11-05 22:16 128k
[TXT]20161003.0244.40.DM.JB-Chud.7787.htm2019-11-05 22:16 176k
[TXT]20161003.0301.39.DM.Liandri.7787.htm2019-11-05 22:16 96k
[TXT]20161003.0307.22.DM.Lostlands-se.7787.htm2019-11-05 22:16 120k
[TXT]20161003.0317.34.DM.MadScientistsLair-se.7787.htm2019-11-05 22:16 76k
[TXT]20161003.0323.44.DM.Magma-se.7787.htm2019-11-05 22:16 72k
[TXT]20161003.0331.22.DM.MenaceV3-se.7787.htm2019-11-05 22:16 116k
[TXT]20161003.0343.13.DM.Mojo2013.7787.htm2019-11-05 22:16 104k
[TXT]20161003.0356.33.DM.MoonbaseSE.7787.htm2019-11-05 22:16 136k
[TXT]20161003.0404.00.DM.Nexo-se.7787.htm2019-11-05 22:16 84k
[TXT]20161003.0412.32.DM.Olden-se.7787.htm2019-11-05 22:16 76k
[TXT]20161003.0420.59.DM.Outland-ve.7787.htm2019-11-05 22:16 88k
[TXT]20161003.0430.27.DM.Pier41se.7787.htm2019-11-05 22:16 92k
[TXT]20161003.0441.26.DM.Quartet-se.7787.htm2019-11-05 22:16 84k
[TXT]20161003.0453.13.DM.RadStorm-te.7787.htm2019-11-05 22:16 76k
[TXT]20161003.0459.07.DM.RaskasarSE.7787.htm2019-11-05 22:16 136k
[TXT]20161003.0508.46.DM.Revenge-fe.7787.htm2019-11-05 22:16 84k
[TXT]20161003.0533.39.DM.Sepulchrum-LP-se.7787.htm2019-11-05 22:16 80k
[TXT]20161003.0540.37.DM.Serenity.7787.htm2019-11-05 22:16 60k
[TXT]20161003.0545.56.DM.SleepyTownTE.7787.htm2019-11-05 22:16 100k
[TXT]20161003.0553.22.DM.StalwartXL.7787.htm2019-11-05 22:16 72k
[TXT]20161003.0559.20.DM.Tempest.7787.htm2019-11-05 22:16 92k
[TXT]20161003.0607.04.DM.TerraIII.7787.htm2019-11-05 22:16 96k
[TXT]20161003.0616.46.DM.Toll.7787.htm2019-11-05 22:16 68k
[TXT]20161003.0623.27.DM.ubUrbanSE.7787.htm2019-11-05 22:16 88k
[TXT]20161003.0634.32.DM.VengadorV.7787.htm2019-11-05 22:16 92k
[TXT]20161003.0641.22.DM.VerdanaTE.7787.htm2019-11-05 22:16 80k
[TXT]20161003.0649.17.DM.Viridian-TOURNEY.7787.htm2019-11-05 22:16 68k
[TXT]20161003.0656.38.DM.Xymoron-VI.7787.htm2019-11-05 22:16 84k
[TXT]20161003.0704.53.DM.Z-Axis-Inspector.7787.htm2019-11-05 22:16 76k
[TXT]20161003.0716.02.DM.ZerckTE.7787.htm2019-11-05 22:16 80k
[TXT]20161003.0724.01.DM.AggressiveII.7787.htm2019-11-05 22:16 92k
[TXT]20161003.0731.03.DM.Agony.7787.htm2019-11-05 22:16 80k
[TXT]20161003.0745.22.DM.AloneintheDark.7787.htm2019-11-05 22:16 72k
[TXT]20161003.0751.32.DM.AnotherBrickInDeW00T.7787.htm2019-11-05 22:16 140k
[TXT]20161003.0854.14.DM.AnUphillBattle-se.7787.htm2019-11-05 22:16 72k
[TXT]20161003.0901.37.DM.Bakuretsu-se.7787.htm2019-11-05 22:16 84k
[TXT]20161003.0909.52.DM.BoneMill][st.7787.htm2019-11-05 22:16 68k
[TXT]20161003.0915.08.DM.BorneoSE.7787.htm2019-11-05 22:16 100k
[TXT]20161003.0921.01.DM.Bridge.7787.htm2019-11-05 22:16 76k
[TXT]20161003.1223.19.DM.Cityzen-se.7787.htm2019-11-05 22:16 100k
[TXT]20161003.1233.37.DM.Coke.7787.htm2019-11-05 22:16 100k
[TXT]20161003.1328.32.DM.CrypticSE.7787.htm2019-11-05 22:16 76k
[TXT]20161003.1409.02.DM.Curse][-te.7787.htm2019-11-05 22:16 80k
[TXT]20161003.1415.47.DM.DarkMindII.7787.htm2019-11-05 22:16 88k
[TXT]20161003.1531.34.DM.DeckHalf420.7787.htm2019-11-05 22:16 120k
[TXT]20161003.1542.43.DM.Distinctive.7787.htm2019-11-05 22:16 84k
[TXT]20161003.1636.24.DM.Draven.7787.htm2019-11-05 22:16 72k
[TXT]20161003.1643.47.DM.EmpoweredIV.7787.htm2019-11-05 22:16 72k
[TXT]20161003.1652.11.DM.Equilibrium-SE.7787.htm2019-11-05 22:16 80k
[TXT]20161003.1659.08.DM.Fade-se.7787.htm2019-11-05 22:16 100k
[TXT]20161003.1710.17.DM.Fear-se.7787.htm2019-11-05 22:16 104k
[TXT]20161003.1719.34.DM.Foom200.7787.htm2019-11-05 22:16 120k
[TXT]20161003.1728.39.DM.GatakaFE.7787.htm2019-11-05 22:16 96k
[TXT]20161003.1737.19.DM.GaugeLoathing.7787.htm2019-11-05 22:16 128k
[TXT]20161003.1747.02.DM.HellsGateIII.7787.htm2019-11-05 22:16 92k
[TXT]20161003.1754.14.DM.JB-Chud.7787.htm2019-11-05 22:16 120k
[TXT]20161003.1759.08.DM.Liandri.7787.htm2019-11-05 22:16 88k
[TXT]20161003.1804.57.DM.Lostlands-se.7787.htm2019-11-05 22:16 84k
[TXT]20161003.1815.05.DM.MadScientistsLair-se.7787.htm2019-11-05 22:16 64k
[TXT]20161003.1931.26.DM.Magma-se.7787.htm2019-11-05 22:16 64k
[TXT]20161003.1935.50.DM.MenaceV3-se.7787.htm2019-11-05 22:16 84k
[TXT]20161003.1941.58.DM.Mojo2013.7787.htm2019-11-05 22:16 80k
[TXT]20161003.1948.37.DM.MoonbaseSE.7787.htm2019-11-05 22:16 112k
[TXT]20161003.1954.29.DM.Nexo-se.7787.htm2019-11-05 22:16 72k
[TXT]20161003.1959.49.DM.Olden-se.7787.htm2019-11-05 22:16 68k
[TXT]20161003.2005.16.DM.Outland-ve.7787.htm2019-11-05 22:16 64k
[TXT]20161003.2011.12.DM.Pier41se.7787.htm2019-11-05 22:16 64k
[TXT]20161003.2016.15.DM.Quartet-se.7787.htm2019-11-05 22:16 68k
[TXT]20161003.2021.41.DM.RadStorm-te.7787.htm2019-11-05 22:16 60k
[TXT]20161003.2025.39.DM.RaskasarSE.7787.htm2019-11-05 22:16 104k
[TXT]20161003.2037.10.DM.AggressiveII.7787.htm2019-11-05 22:16 60k
[TXT]20161003.2037.48.DM.Revenge-fe.7787.htm2019-11-05 22:16 64k
[TXT]20161003.2049.38.DM.Sepulchrum-LP-se.7787.htm2019-11-05 22:16 68k
[TXT]20161003.2053.25.DM.Serenity.7787.htm2019-11-05 22:16 60k
[TXT]20161003.2059.04.DM.SleepyTownTE.7787.htm2019-11-05 22:16 92k
[TXT]20161003.2103.18.DM.StalwartXL.7787.htm2019-11-05 22:16 68k
[TXT]20161003.2107.26.DM.Tempest.7787.htm2019-11-05 22:16 96k
[TXT]20161003.2114.23.DM.TerraIII.7787.htm2019-11-05 22:16 132k
[TXT]20161003.2124.30.DM.Toll.7787.htm2019-11-05 22:16 84k
[TXT]20161003.2134.50.DM.ubUrbanSE.7787.htm2019-11-05 22:16 84k
[TXT]20161003.2143.08.DM.VengadorV.7787.htm2019-11-05 22:16 88k
[TXT]20161003.2149.12.DM.VerdanaTE.7787.htm2019-11-05 22:16 92k
[TXT]20161003.2159.43.DM.Viridian-TOURNEY.7787.htm2019-11-05 22:16 84k
[TXT]20161003.2210.55.DM.Xymoron-VI.7787.htm2019-11-05 22:16 88k
[TXT]20161003.2224.00.DM.Z-Axis-Inspector.7787.htm2019-11-05 22:16 68k
[TXT]20161003.2230.58.DM.ZerckTE.7787.htm2019-11-05 22:16 76k
[TXT]20161003.2237.23.DM.AggressiveII.7787.htm2019-11-05 22:16 88k
[TXT]20161003.2243.49.DM.Agony.7787.htm2019-11-05 22:16 76k
[TXT]20161003.2249.04.DM.AloneintheDark.7787.htm2019-11-05 22:16 96k
[TXT]20161003.2257.08.DM.AnotherBrickInDeW00T.7787.htm2019-11-05 22:16 104k
[TXT]20161003.2303.13.DM.AnUphillBattle-se.7787.htm2019-11-05 22:16 104k
[TXT]20161003.2309.27.DM.Bakuretsu-se.7787.htm2019-11-05 22:16 80k
[TXT]20161003.2316.28.DM.BoneMill][st.7787.htm2019-11-05 22:16 72k
[TXT]20161003.2322.49.DM.BorneoSE.7787.htm2019-11-05 22:16 156k
[TXT]20161003.2332.27.DM.Bridge.7787.htm2019-11-05 22:16 76k
[TXT]20161003.2350.40.DM.Cityzen-se.7787.htm2019-11-05 22:16 76k
[TXT]20161003.2356.43.DM.Coke.7787.htm2019-11-05 22:16 80k
[TXT]20161004.0004.21.DM.CrypticSE.7787.htm2019-11-05 22:16 84k
[TXT]20161004.0014.52.DM.Curse][-te.7787.htm2019-11-05 22:16 84k
[TXT]20161004.0023.21.DM.DarkMindII.7787.htm2019-11-05 22:16 80k
[TXT]20161004.0110.07.DM.DeckHalf420.7787.htm2019-11-05 22:16 104k
[TXT]20161004.0116.12.DM.Distinctive.7787.htm2019-11-05 22:16 76k
[TXT]20161004.0121.30.DM.Draven.7787.htm2019-11-05 22:16 68k
[TXT]20161004.0127.48.DM.EmpoweredIV.7787.htm2019-11-05 22:16 68k
[TXT]20161004.0134.33.DM.Equilibrium-SE.7787.htm2019-11-05 22:16 72k
[TXT]20161004.0139.20.DM.Fade-se.7787.htm2019-11-05 22:17 76k
[TXT]20161004.0145.26.DM.Fear-se.7787.htm2019-11-05 22:17 72k
[TXT]20161004.0150.23.DM.Foom200.7787.htm2019-11-05 22:17 104k
[TXT]20161004.0155.29.DM.GatakaFE.7787.htm2019-11-05 22:17 76k
[TXT]20161004.0201.07.DM.GaugeLoathing.7787.htm2019-11-05 22:17 80k
[TXT]20161004.0207.22.DM.HellsGateIII.7787.htm2019-11-05 22:17 76k
[TXT]20161004.0213.24.DM.JB-Chud.7787.htm2019-11-05 22:17 108k
[TXT]20161004.0220.05.DM.Liandri.7787.htm2019-11-05 22:17 88k
[TXT]20161004.0226.04.DM.Lostlands-se.7787.htm2019-11-05 22:17 68k
[TXT]20161004.0232.01.DM.MadScientistsLair-se.7787.htm2019-11-05 22:17 72k
[TXT]20161004.0239.09.DM.Magma-se.7787.htm2019-11-05 22:17 68k
[TXT]20161004.0245.48.DM.MenaceV3-se.7787.htm2019-11-05 22:17 104k
[TXT]20161004.0253.01.DM.Mojo2013.7787.htm2019-11-05 22:17 92k
[TXT]20161004.0302.53.DM.MoonbaseSE.7787.htm2019-11-05 22:17 120k
[TXT]20161004.0310.32.DM.Nexo-se.7787.htm2019-11-05 22:17 72k
[TXT]20161004.0316.04.DM.Olden-se.7787.htm2019-11-05 22:17 92k
[TXT]20161004.0325.22.DM.Outland-ve.7787.htm2019-11-05 22:17 96k
[TXT]20161004.0334.00.DM.Pier41se.7787.htm2019-11-05 22:17 92k
[TXT]20161004.0413.09.DM.AggressiveII.7787.htm2019-11-05 22:17 76k
[TXT]20161004.0825.27.DM.Agony.7787.htm2019-11-05 22:17 76k
[TXT]20161004.0840.04.DM.AloneintheDark.7787.htm2019-11-05 22:17 92k
[TXT]20161004.0849.57.DM.AnotherBrickInDeW00T.7787.htm2019-11-05 22:17 100k
[TXT]20161004.0858.17.DM.AnUphillBattle-se.7787.htm2019-11-05 22:17 84k
[TXT]20161004.0908.07.DM.Bakuretsu-se.7787.htm2019-11-05 22:17 112k
[TXT]20161004.0923.15.DM.BoneMill][st.7787.htm2019-11-05 22:17 88k
[TXT]20161004.1019.58.DM.BorneoSE.7787.htm2019-11-05 22:17 96k
[TXT]20161004.1039.08.DM.Bridge.7787.htm2019-11-05 22:17 92k
[TXT]20161004.1046.40.DM.Cityzen-se.7787.htm2019-11-05 22:17 100k
[TXT]20161004.1057.16.DM.Coke.7787.htm2019-11-05 22:17 76k
[TXT]20161004.1110.56.DM.CrypticSE.7787.htm2019-11-05 22:17 100k
[TXT]20161004.1121.45.DM.Curse][-te.7787.htm2019-11-05 22:17 72k
[TXT]20161004.1142.15.DM.DarkMindII.7787.htm2019-11-05 22:17 80k
[TXT]20161004.1148.45.DM.DeckHalf420.7787.htm2019-11-05 22:17 96k
[TXT]20161004.1259.41.DM.Distinctive.7787.htm2019-11-05 22:17 72k
[TXT]20161004.1309.37.DM.Draven.7787.htm2019-11-05 22:17 68k
[TXT]20161004.1314.46.DM.EmpoweredIV.7787.htm2019-11-05 22:17 88k
[TXT]20161004.1326.10.DM.Equilibrium-SE.7787.htm2019-11-05 22:17 72k
[TXT]20161004.1332.06.DM.Fade-se.7787.htm2019-11-05 22:17 76k
[TXT]20161004.1359.57.DM.Fear-se.7787.htm2019-11-05 22:17 64k
[TXT]20161004.1405.02.DM.Foom200.7787.htm2019-11-05 22:17 104k
[TXT]20161004.1409.45.DM.GatakaFE.7787.htm2019-11-05 22:17 76k
[TXT]20161004.1415.15.DM.GaugeLoathing.7787.htm2019-11-05 22:17 100k
[TXT]20161004.1426.40.DM.HellsGateIII.7787.htm2019-11-05 22:17 96k
[TXT]20161004.1813.21.DM.JB-Chud.7787.htm2019-11-05 22:17 104k
[TXT]20161004.1944.48.DM.Liandri.7787.htm2019-11-05 22:17 96k
[TXT]20161004.1953.40.DM.Lostlands-se.7787.htm2019-11-05 22:17 64k
[TXT]20161004.1958.41.DM.MadScientistsLair-se.7787.htm2019-11-05 22:17 64k
[TXT]20161004.2009.08.DM.Magma-se.7787.htm2019-11-05 22:17 68k
[TXT]20161004.2014.32.DM.MenaceV3-se.7787.htm2019-11-05 22:17 72k
[TXT]20161004.2018.55.DM.Mojo2013.7787.htm2019-11-05 22:17 72k
[TXT]20161004.2024.11.DM.MoonbaseSE.7787.htm2019-11-05 22:17 108k
[TXT]20161004.2029.45.DM.Nexo-se.7787.htm2019-11-05 22:17 76k
[TXT]20161004.2049.55.DM.Olden-se.7787.htm2019-11-05 22:17 64k
[TXT]20161004.2054.20.DM.Outland-ve.7787.htm2019-11-05 22:17 60k
[TXT]20161004.2058.14.DM.Pier41se.7787.htm2019-11-05 22:17 60k
[TXT]20161004.2102.29.DM.Quartet-se.7787.htm2019-11-05 22:17 68k
[TXT]20161004.2107.40.DM.RadStorm-te.7787.htm2019-11-05 22:17 64k
[TXT]20161004.2112.31.DM.RaskasarSE.7787.htm2019-11-05 22:17 104k
[TXT]20161004.2117.43.DM.Revenge-fe.7787.htm2019-11-05 22:17 60k
[TXT]20161004.2123.01.DM.Sepulchrum-LP-se.7787.htm2019-11-05 22:17 80k
[TXT]20161004.2208.56.DM.Serenity.7787.htm2019-11-05 22:17 80k
[TXT]20161004.2306.41.DM.SleepyTownTE.7787.htm2019-11-05 22:17 100k
[TXT]20161004.2312.34.DM.StalwartXL.7787.htm2019-11-05 22:17 76k
[TXT]20161004.2318.06.DM.Tempest.7787.htm2019-11-05 22:17 96k
[TXT]20161004.2325.34.DM.TerraIII.7787.htm2019-11-05 22:17 152k
[TXT]20161004.2341.44.DM.Toll.7787.htm2019-11-05 22:17 76k
[TXT]20161004.2349.18.DM.ubUrbanSE.7787.htm2019-11-05 22:17 92k
[TXT]20161004.2357.00.DM.VengadorV.7787.htm2019-11-05 22:17 92k
[TXT]20161005.0003.14.DM.VerdanaTE.7787.htm2019-11-05 22:17 80k
[TXT]20161005.0011.49.DM.Viridian-TOURNEY.7787.htm2019-11-05 22:17 72k
[TXT]20161005.0020.14.DM.Xymoron-VI.7787.htm2019-11-05 22:17 80k
[TXT]20161005.0027.57.DM.Z-Axis-Inspector.7787.htm2019-11-05 22:17 100k
[TXT]20161005.0042.21.DM.ZerckTE.7787.htm2019-11-05 22:17 96k
[TXT]20161005.0053.04.DM.AggressiveII.7787.htm2019-11-05 22:17 108k
[TXT]20161005.0105.07.DM.Agony.7787.htm2019-11-05 22:17 112k
[TXT]20161005.0122.13.DM.AloneintheDark.7787.htm2019-11-05 22:17 76k
[TXT]20161005.0137.24.DM.AnotherBrickInDeW00T.7787.htm2019-11-05 22:17 112k
[TXT]20161005.0145.56.DM.AnUphillBattle-se.7787.htm2019-11-05 22:17 68k
[TXT]20161005.0152.20.DM.Bakuretsu-se.7787.htm2019-11-05 22:17 88k
[TXT]20161005.0202.52.DM.BoneMill][st.7787.htm2019-11-05 22:17 72k
[TXT]20161005.0209.19.DM.BorneoSE.7787.htm2019-11-05 22:17 96k
[TXT]20161005.0235.05.DM.Bridge.7787.htm2019-11-05 22:17 88k
[TXT]20161005.0241.19.DM.Cityzen-se.7787.htm2019-11-05 22:17 92k
[TXT]20161005.0247.54.DM.Coke.7787.htm2019-11-05 22:17 84k
[TXT]20161005.0254.35.DM.CrypticSE.7787.htm2019-11-05 22:17 96k
[TXT]20161005.0329.28.DM.Curse][-te.7787.htm2019-11-05 22:17 104k
[TXT]20161005.0346.14.DM.DarkMindII.7787.htm2019-11-05 22:17 92k
[TXT]20161005.0552.28.DM.DeckHalf420.7787.htm2019-11-05 22:17 84k
[TXT]20161005.0634.45.DM.Distinctive.7787.htm2019-11-05 22:17 84k
[TXT]20161005.0642.13.DM.Draven.7787.htm2019-11-05 22:17 68k
[TXT]20161005.0649.00.DM.EmpoweredIV.7787.htm2019-11-05 22:17 68k
[TXT]20161005.0655.15.DM.Equilibrium-SE.7787.htm2019-11-05 22:17 76k
[TXT]20161005.0701.09.DM.Fade-se.7787.htm2019-11-05 22:17 80k
[TXT]20161005.0707.42.DM.Fear-se.7787.htm2019-11-05 22:17 60k
[TXT]20161005.0825.32.DM.Foom200.7787.htm2019-11-05 22:17 128k
[TXT]20161005.0831.39.DM.GatakaFE.7787.htm2019-11-05 22:17 84k
[TXT]20161005.0839.28.DM.GaugeLoathing.7787.htm2019-11-05 22:17 80k
[TXT]20161005.0845.54.DM.HellsGateIII.7787.htm2019-11-05 22:17 76k
[TXT]20161005.0851.33.DM.JB-Chud.7787.htm2019-11-05 22:17 104k
[TXT]20161005.0912.18.DM.Liandri.7787.htm2019-11-05 22:17 84k
[TXT]20161005.0917.56.DM.Lostlands-se.7787.htm2019-11-05 22:17 68k
[TXT]20161005.0923.37.DM.MadScientistsLair-se.7787.htm2019-11-05 22:17 64k
[TXT]20161005.0928.42.DM.Magma-se.7787.htm2019-11-05 22:17 64k
[TXT]20161005.0933.01.DM.MenaceV3-se.7787.htm2019-11-05 22:17 76k
[TXT]20161005.0938.19.DM.Mojo2013.7787.htm2019-11-05 22:17 80k
[TXT]20161005.1105.32.DM.MoonbaseSE.7787.htm2019-11-05 22:17 112k
[TXT]20161005.1112.20.DM.Nexo-se.7787.htm2019-11-05 22:17 80k
[TXT]20161005.1119.49.DM.Olden-se.7787.htm2019-11-05 22:17 68k
[TXT]20161005.1326.51.DM.Outland-ve.7787.htm2019-11-05 22:17 64k
[TXT]20161005.1332.28.DM.Pier41se.7787.htm2019-11-05 22:17 60k
[TXT]20161005.1342.50.DM.Quartet-se.7787.htm2019-11-05 22:18 76k
[TXT]20161005.1349.36.DM.RadStorm-te.7787.htm2019-11-05 22:18 84k
[TXT]20161005.1359.01.DM.RaskasarSE.7787.htm2019-11-05 22:18 112k
[TXT]20161005.1451.34.DM.Revenge-fe.7787.htm2019-11-05 22:18 68k
[TXT]20161005.1458.09.DM.Sepulchrum-LP-se.7787.htm2019-11-05 22:18 76k
[TXT]20161005.1503.01.DM.Serenity.7787.htm2019-11-05 22:18 60k
[TXT]20161005.1509.46.DM.SleepyTownTE.7787.htm2019-11-05 22:18 88k
[TXT]20161005.1514.07.DM.StalwartXL.7787.htm2019-11-05 22:18 84k
[TXT]20161005.1920.52.DM.Tempest.7787.htm2019-11-05 22:18 108k
[TXT]20161005.1932.17.DM.TerraIII.7787.htm2019-11-05 22:18 136k
[TXT]20161006.0037.00.DM.Toll.7787.htm2019-11-05 22:18 64k
[TXT]20161006.0047.26.DM.ubUrbanSE.7787.htm2019-11-05 22:18 76k
[TXT]20161006.0053.32.DM.VengadorV.7787.htm2019-11-05 22:18 88k
[TXT]20161006.0103.24.DM.VerdanaTE.7787.htm2019-11-05 22:18 76k
[TXT]20161006.0109.48.DM.Viridian-TOURNEY.7787.htm2019-11-05 22:18 64k
[TXT]20161006.0114.42.DM.Xymoron-VI.7787.htm2019-11-05 22:18 76k
[TXT]20161006.0120.03.DM.Z-Axis-Inspector.7787.htm2019-11-05 22:18 116k
[TXT]20161006.0143.09.DM.ZerckTE.7787.htm2019-11-05 22:18 84k
[TXT]20161006.0215.51.DM.AggressiveII.7787.htm2019-11-05 22:18 84k
[TXT]20161006.0222.50.DM.Agony.7787.htm2019-11-05 22:18 96k
[TXT]20161006.0310.33.DM.AloneintheDark.7787.htm2019-11-05 22:18 80k
[TXT]20161006.0318.58.DM.AnotherBrickInDeW00T.7787.htm2019-11-05 22:18 108k
[TXT]20161006.0326.27.DM.AnUphillBattle-se.7787.htm2019-11-05 22:18 68k
[TXT]20161006.0332.25.DM.Bakuretsu-se.7787.htm2019-11-05 22:18 76k
[TXT]20161006.1220.11.DM.BoneMill][st.7787.htm2019-11-05 22:18 72k
[TXT]20161006.1510.43.DM.BorneoSE.7787.htm2019-11-05 22:18 108k
[TXT]20161006.1518.50.DM.Bridge.7787.htm2019-11-05 22:18 76k
[TXT]20161006.1849.09.DM.Cityzen-se.7787.htm2019-11-05 22:18 76k
[TXT]20161006.1855.03.DM.Coke.7787.htm2019-11-05 22:18 80k
[TXT]20161006.1908.00.DM.CrypticSE.7787.htm2019-11-05 22:18 72k
[TXT]20161006.2024.10.DM.Curse][-te.7787.htm2019-11-05 22:18 76k
[TXT]20161006.2029.28.DM.DarkMindII.7787.htm2019-11-05 22:18 68k
[TXT]20161006.2034.43.DM.DeckHalf420.7787.htm2019-11-05 22:18 92k
[TXT]20161006.2039.39.DM.Distinctive.7787.htm2019-11-05 22:18 72k
[TXT]20161006.2043.16.DM.Draven.7787.htm2019-11-05 22:18 64k
[TXT]20161006.2048.02.DM.EmpoweredIV.7787.htm2019-11-05 22:18 64k
[TXT]20161006.2053.34.DM.Equilibrium-SE.7787.htm2019-11-05 22:18 72k
[TXT]20161006.2058.40.DM.Fade-se.7787.htm2019-11-05 22:18 80k
[TXT]20161006.2105.12.DM.Fear-se.7787.htm2019-11-05 22:18 64k
[TXT]20161006.2109.25.DM.Foom200.7787.htm2019-11-05 22:18 104k
[TXT]20161006.2114.41.DM.GatakaFE.7787.htm2019-11-05 22:18 116k
[TXT]20161006.2126.30.DM.GaugeLoathing.7787.htm2019-11-05 22:18 76k
[TXT]20161006.2131.57.DM.HellsGateIII.7787.htm2019-11-05 22:18 80k
[TXT]20161006.2139.56.DM.JB-Chud.7787.htm2019-11-05 22:18 120k
[TXT]20161006.2147.48.DM.Liandri.7787.htm2019-11-05 22:18 108k
[TXT]20161006.2156.23.DM.Lostlands-se.7787.htm2019-11-05 22:18 68k
[TXT]20161006.2203.11.DM.MadScientistsLair-se.7787.htm2019-11-05 22:18 64k
[TXT]20161006.2209.27.DM.Magma-se.7787.htm2019-11-05 22:18 68k
[TXT]20161006.2214.38.DM.MenaceV3-se.7787.htm2019-11-05 22:18 80k
[TXT]20161006.2220.50.DM.Mojo2013.7787.htm2019-11-05 22:18 80k
[TXT]20161006.2227.41.DM.MoonbaseSE.7787.htm2019-11-05 22:18 132k
[TXT]20161006.2252.53.DM.Nexo-se.7787.htm2019-11-05 22:18 76k
[TXT]20161006.2258.33.DM.Olden-se.7787.htm2019-11-05 22:18 68k
[TXT]20161006.2304.56.DM.Outland-ve.7787.htm2019-11-05 22:18 68k
[TXT]20161006.2309.26.DM.Pier41se.7787.htm2019-11-05 22:18 60k
[TXT]20161006.2314.00.DM.Quartet-se.7787.htm2019-11-05 22:18 68k
[TXT]20161006.2319.35.DM.RadStorm-te.7787.htm2019-11-05 22:18 60k
[TXT]20161006.2324.05.DM.RaskasarSE.7787.htm2019-11-05 22:18 128k
[TXT]20161006.2329.26.DM.Revenge-fe.7787.htm2019-11-05 22:18 60k
[TXT]20161006.2333.29.DM.Sepulchrum-LP-se.7787.htm2019-11-05 22:18 76k
[TXT]20161006.2338.22.DM.Serenity.7787.htm2019-11-05 22:18 60k
[TXT]20161006.2343.17.DM.SleepyTownTE.7787.htm2019-11-05 22:18 88k
[TXT]20161007.0024.30.DM.StalwartXL.7787.htm2019-11-05 22:18 76k
[TXT]20161007.0029.27.DM.Tempest.7787.htm2019-11-05 22:18 88k
[TXT]20161007.0035.15.DM.TerraIII.7787.htm2019-11-05 22:18 92k
[TXT]20161007.0048.27.DM.Toll.7787.htm2019-11-05 22:18 68k
[TXT]20161007.0125.01.DM.ubUrbanSE.7787.htm2019-11-05 22:18 76k
[TXT]20161007.0217.41.DM.VengadorV.7787.htm2019-11-05 22:18 84k
[TXT]20161007.0223.03.DM.VerdanaTE.7787.htm2019-11-05 22:18 76k
[TXT]20161007.0229.52.DM.Viridian-TOURNEY.7787.htm2019-11-05 22:18 96k
[TXT]20161007.0315.50.DM.Xymoron-VI.7787.htm2019-11-05 22:18 88k
[TXT]20161007.0322.13.DM.Z-Axis-Inspector.7787.htm2019-11-05 22:18 76k
[TXT]20161007.0440.12.DM.ZerckTE.7787.htm2019-11-05 22:18 76k
[TXT]20161007.0447.03.DM.AggressiveII.7787.htm2019-11-05 22:18 104k
[TXT]20161007.0607.03.DM.Agony.7787.htm2019-11-05 22:18 80k
[TXT]20161007.1236.25.DM.AloneintheDark.7787.htm2019-11-05 22:18 68k
[TXT]20161007.1241.34.DM.AnotherBrickInDeW00T.7787.htm2019-11-05 22:18 100k
[TXT]20161007.1246.23.DM.AnUphillBattle-se.7787.htm2019-11-05 22:18 76k
[TXT]20161007.1427.43.DM.Bakuretsu-se.7787.htm2019-11-05 22:18 72k
[TXT]20161007.1756.37.DM.BoneMill][st.7787.htm2019-11-05 22:18 64k
[TXT]20161007.1801.42.DM.BorneoSE.7787.htm2019-11-05 22:18 96k
[TXT]20161007.1806.47.DM.Bridge.7787.htm2019-11-05 22:18 76k
[TXT]20161007.1829.01.DM.Cityzen-se.7787.htm2019-11-05 22:18 108k
[TXT]20161007.1841.48.DM.Coke.7787.htm2019-11-05 22:18 100k
[TXT]20161007.1847.34.DM.CrypticSE.7787.htm2019-11-05 22:18 72k
[TXT]20161007.1851.56.DM.Curse][-te.7787.htm2019-11-05 22:18 100k
[TXT]20161007.1902.15.DM.DarkMindII.7787.htm2019-11-05 22:18 88k
[TXT]20161007.2005.25.DM.DeckHalf420.7787.htm2019-11-05 22:18 92k
[TXT]20161007.2011.00.DM.Distinctive.7787.htm2019-11-05 22:18 76k
[TXT]20161007.2016.03.DM.Draven.7787.htm2019-11-05 22:18 64k
[TXT]20161007.2020.06.DM.EmpoweredIV.7787.htm2019-11-05 22:18 92k
[TXT]20161007.2031.37.DM.Equilibrium-SE.7787.htm2019-11-05 22:18 72k
[TXT]20161007.2036.01.DM.Fade-se.7787.htm2019-11-05 22:18 120k
[TXT]20161007.2049.58.DM.Fear-se.7787.htm2019-11-05 22:18 64k
[TXT]20161007.2055.31.DM.Foom200.7787.htm2019-11-05 22:18 100k
[TXT]20161007.2100.17.DM.GatakaFE.7787.htm2019-11-05 22:18 76k
[TXT]20161007.2105.34.DM.GaugeLoathing.7787.htm2019-11-05 22:18 76k
[TXT]20161007.2111.14.DM.HellsGateIII.7787.htm2019-11-05 22:18 76k
[TXT]20161007.2117.35.DM.JB-Chud.7787.htm2019-11-05 22:18 100k
[TXT]20161007.2223.44.DM.Liandri.7787.htm2019-11-05 22:18 96k
[TXT]20161007.2229.23.DM.Lostlands-se.7787.htm2019-11-05 22:18 68k
[TXT]20161007.2234.10.DM.MadScientistsLair-se.7787.htm2019-11-05 22:18 64k
[TXT]20161007.2238.51.DM.Magma-se.7787.htm2019-11-05 22:18 64k
[TXT]20161007.2243.08.DM.MenaceV3-se.7787.htm2019-11-05 22:18 76k
[TXT]20161007.2248.16.DM.Mojo2013.7787.htm2019-11-05 22:18 76k
[TXT]20161007.2254.03.DM.MoonbaseSE.7787.htm2019-11-05 22:18 104k
[TXT]20161007.2259.10.DM.Nexo-se.7787.htm2019-11-05 22:19 96k
[TXT]20161007.2309.29.DM.Olden-se.7787.htm2019-11-05 22:19 72k
[TXT]20161008.0045.52.DM.Outland-ve.7787.htm2019-11-05 22:19 72k
[TXT]20161008.0053.22.DM.Pier41se.7787.htm2019-11-05 22:19 64k
[TXT]20161008.0059.27.DM.Quartet-se.7787.htm2019-11-05 22:19 72k
[TXT]20161008.0820.46.DM.RadStorm-te.7787.htm2019-11-05 22:19 60k
[TXT]20161008.0824.53.DM.RaskasarSE.7787.htm2019-11-05 22:19 112k
[TXT]20161008.0831.10.DM.Revenge-fe.7787.htm2019-11-05 22:19 64k
[TXT]20161008.0837.38.DM.Sepulchrum-LP-se.7787.htm2019-11-05 22:19 96k
[TXT]20161008.0957.12.DM.Serenity.7787.htm2019-11-05 22:19 64k
[TXT]20161008.1110.05.DM.SleepyTownTE.7787.htm2019-11-05 22:19 100k
[TXT]20161008.1117.13.DM.StalwartXL.7787.htm2019-11-05 22:19 88k
[TXT]20161008.1122.21.DM.Tempest.7787.htm2019-11-05 22:19 100k
[TXT]20161008.1132.22.DM.TerraIII.7787.htm2019-11-05 22:19 104k
[TXT]20161008.1140.36.DM.Toll.7787.htm2019-11-05 22:19 76k
[TXT]20161008.1148.11.DM.ubUrbanSE.7787.htm2019-11-05 22:19 76k
[TXT]20161008.1154.06.DM.VengadorV.7787.htm2019-11-05 22:19 84k
[TXT]20161008.1159.09.DM.VerdanaTE.7787.htm2019-11-05 22:19 76k
[TXT]20161008.1206.30.DM.Viridian-TOURNEY.7787.htm2019-11-05 22:19 64k
[TXT]20161008.1257.33.DM.Xymoron-VI.7787.htm2019-11-05 22:19 80k
[TXT]20161008.1339.26.DM.Z-Axis-Inspector.7787.htm2019-11-05 22:19 92k
[TXT]20161008.1633.07.DM.ZerckTE.7787.htm2019-11-05 22:19 108k
[TXT]20161008.1644.37.DM.AggressiveII.7787.htm2019-11-05 22:19 80k
[TXT]20161008.1651.07.DM.Agony.7787.htm2019-11-05 22:19 80k
[TXT]20161008.1658.44.DM.AloneintheDark.7787.htm2019-11-05 22:19 76k
[TXT]20161008.2000.04.DM.AnotherBrickInDeW00T.7787.htm2019-11-05 22:19 108k
[TXT]20161008.2204.17.DM.AnUphillBattle-se.7787.htm2019-11-05 22:19 68k
[TXT]20161008.2210.58.DM.Bakuretsu-se.7787.htm2019-11-05 22:19 76k
[TXT]20161008.2326.38.DM.BoneMill][st.7787.htm2019-11-05 22:19 84k
[TXT]20161008.2348.52.DM.BorneoSE.7787.htm2019-11-05 22:19 96k
[TXT]20161009.0010.40.DM.Bridge.7787.htm2019-11-05 22:19 80k
[TXT]20161009.0522.16.DM.Cityzen-se.7787.htm2019-11-05 22:19 76k
[TXT]20161009.0621.06.DM.Coke.7787.htm2019-11-05 22:19 80k
[TXT]20161009.0753.35.DM.CrypticSE.7787.htm2019-11-05 22:19 104k
[TXT]20161009.0805.24.DM.Curse][-te.7787.htm2019-11-05 22:19 80k
[TXT]20161009.0812.27.DM.DarkMindII.7787.htm2019-11-05 22:19 96k
[TXT]20161009.0822.16.DM.DeckHalf420.7787.htm2019-11-05 22:19 100k
[TXT]20161009.0837.25.DM.Distinctive.7787.htm2019-11-05 22:19 76k
[TXT]20161009.0953.11.DM.Draven.7787.htm2019-11-05 22:19 64k
[TXT]20161009.0958.02.DM.EmpoweredIV.7787.htm2019-11-05 22:19 68k
[TXT]20161009.1004.05.DM.Equilibrium-SE.7787.htm2019-11-05 22:19 76k
[TXT]20161009.1010.02.DM.Fade-se.7787.htm2019-11-05 22:19 100k
[TXT]20161009.1128.13.DM.Fear-se.7787.htm2019-11-05 22:19 72k
[TXT]20161009.1133.10.DM.Foom200.7787.htm2019-11-05 22:19 140k
[TXT]20161009.1144.55.DM.GatakaFE.7787.htm2019-11-05 22:19 72k
[TXT]20161009.1149.53.DM.GaugeLoathing.7787.htm2019-11-05 22:19 76k
[TXT]20161009.1154.59.DM.HellsGateIII.7787.htm2019-11-05 22:19 88k
[TXT]20161009.1203.35.DM.JB-Chud.7787.htm2019-11-05 22:19 120k
[TXT]20161009.1209.15.DM.Liandri.7787.htm2019-11-05 22:19 88k
[TXT]20161009.1216.33.DM.Lostlands-se.7787.htm2019-11-05 22:19 68k
[TXT]20161009.1223.23.DM.MadScientistsLair-se.7787.htm2019-11-05 22:19 68k
[TXT]20161009.1228.45.DM.Magma-se.7787.htm2019-11-05 22:19 64k
[TXT]20161009.1233.19.DM.MenaceV3-se.7787.htm2019-11-05 22:19 100k
[TXT]20161009.1243.09.DM.Mojo2013.7787.htm2019-11-05 22:19 76k
[TXT]20161009.1248.45.DM.MoonbaseSE.7787.htm2019-11-05 22:19 184k
[TXT]20161009.1301.42.DM.Nexo-se.7787.htm2019-11-05 22:19 100k
[TXT]20161009.1314.35.DM.Olden-se.7787.htm2019-11-05 22:19 76k
[TXT]20161009.1336.39.DM.Outland-ve.7787.htm2019-11-05 22:19 64k
[TXT]20161009.1343.11.DM.Pier41se.7787.htm2019-11-05 22:19 64k
[TXT]20161009.1349.30.DM.Quartet-se.7787.htm2019-11-05 22:19 76k
[TXT]20161009.1356.41.DM.RadStorm-te.7787.htm2019-11-05 22:19 60k
[TXT]20161009.1401.10.DM.RaskasarSE.7787.htm2019-11-05 22:19 132k
[TXT]20161009.1409.44.DM.Revenge-fe.7787.htm2019-11-05 22:19 68k
[TXT]20161009.1416.36.DM.Sepulchrum-LP-se.7787.htm2019-11-05 22:19 76k
[TXT]20161009.1424.00.DM.Serenity.7787.htm2019-11-05 22:19 56k
[TXT]20161009.1654.42.DM.SleepyTownTE.7787.htm2019-11-05 22:19 92k
[TXT]20161009.1659.10.DM.StalwartXL.7787.htm2019-11-05 22:19 64k
[TXT]20161009.1702.32.DM.Tempest.7787.htm2019-11-05 22:19 88k
[TXT]20161009.1708.18.DM.TerraIII.7787.htm2019-11-05 22:19 88k
[TXT]20161009.1714.18.DM.Toll.7787.htm2019-11-05 22:19 64k
[TXT]20161009.1718.45.DM.ubUrbanSE.7787.htm2019-11-05 22:19 72k
[TXT]20161009.1723.51.DM.VengadorV.7787.htm2019-11-05 22:19 112k
[TXT]20161009.1750.33.DM.VerdanaTE.7787.htm2019-11-05 22:19 92k
[TXT]20161009.1835.10.DM.Viridian-TOURNEY.7787.htm2019-11-05 22:19 108k
[TXT]20161009.1844.16.DM.Xymoron-VI.7787.htm2019-11-05 22:19 68k
[TXT]20161009.1848.11.DM.Z-Axis-Inspector.7787.htm2019-11-05 22:19 68k
[TXT]20161009.1855.20.DM.ZerckTE.7787.htm2019-11-05 22:19 72k
[TXT]20161009.1900.38.DM.AggressiveII.7787.htm2019-11-05 22:19 76k
[TXT]20161009.1905.55.DM.Agony.7787.htm2019-11-05 22:19 76k
[TXT]20161009.1911.49.DM.AloneintheDark.7787.htm2019-11-05 22:19 72k
[TXT]20161009.1916.39.DM.AnotherBrickInDeW00T.7787.htm2019-11-05 22:19 100k
[TXT]20161009.1921.28.DM.AnUphillBattle-se.7787.htm2019-11-05 22:19 80k
[TXT]20161009.1928.37.DM.Bakuretsu-se.7787.htm2019-11-05 22:19 140k
[TXT]20161009.2017.48.DM.BoneMill][st.7787.htm2019-11-05 22:19 60k
[TXT]20161009.2022.10.DM.BorneoSE.7787.htm2019-11-05 22:19 116k
[TXT]20161009.2027.22.DM.Bridge.7787.htm2019-11-05 22:19 76k
[TXT]20161009.2033.33.DM.Cityzen-se.7787.htm2019-11-05 22:19 76k
[TXT]20161009.2037.50.DM.Coke.7787.htm2019-11-05 22:19 100k
[TXT]20161009.2045.52.DM.CrypticSE.7787.htm2019-11-05 22:19 68k
[TXT]20161009.2050.02.DM.Curse][-te.7787.htm2019-11-05 22:19 80k
[TXT]20161009.2055.39.DM.DarkMindII.7787.htm2019-11-05 22:19 64k
[TXT]20161009.2105.07.DM.DeckHalf420.7787.htm2019-11-05 22:19 88k
[TXT]20161009.2109.43.DM.Distinctive.7787.htm2019-11-05 22:19 76k
[TXT]20161009.2114.40.DM.Draven.7787.htm2019-11-05 22:19 80k
[TXT]20161009.2206.50.DM.EmpoweredIV.7787.htm2019-11-05 22:19 84k
[TXT]20161009.2214.21.DM.Equilibrium-SE.7787.htm2019-11-05 22:19 76k
[TXT]20161009.2220.11.DM.Fade-se.7787.htm2019-11-05 22:19 80k
[TXT]20161009.2227.56.DM.Fear-se.7787.htm2019-11-05 22:19 88k
[TXT]20161009.2243.31.DM.Foom200.7787.htm2019-11-05 22:19 128k
[TXT]20161009.2255.14.DM.GatakaFE.7787.htm2019-11-05 22:19 80k
[TXT]20161009.2302.19.DM.GaugeLoathing.7787.htm2019-11-05 22:19 76k
[TXT]20161009.2307.37.DM.HellsGateIII.7787.htm2019-11-05 22:19 76k
[TXT]20161009.2313.41.DM.JB-Chud.7787.htm2019-11-05 22:19 100k
[TXT]20161009.2318.23.DM.Liandri.7787.htm2019-11-05 22:19 88k
[TXT]20161009.2324.36.DM.Lostlands-se.7787.htm2019-11-05 22:19 60k
[TXT]20161009.2329.07.DM.MadScientistsLair-se.7787.htm2019-11-05 22:19 64k
[TXT]20161009.2333.50.DM.Magma-se.7787.htm2019-11-05 22:19 64k
[TXT]20161009.2339.57.DM.MenaceV3-se.7787.htm2019-11-05 22:20 104k
[TXT]20161009.2351.33.DM.Mojo2013.7787.htm2019-11-05 22:20 80k
[TXT]20161010.1012.00.DM.MoonbaseSE.7787.htm2019-11-05 22:20 112k
[TXT]20161010.1306.56.DM.Nexo-se.7787.htm2019-11-05 22:20 76k
[TXT]20161010.1313.23.DM.Olden-se.7787.htm2019-11-05 22:20 68k
[TXT]20161010.1319.38.DM.Outland-ve.7787.htm2019-11-05 22:20 64k
[TXT]20161010.1535.33.DM.Pier41se.7787.htm2019-11-05 22:20 64k
[TXT]20161010.1541.09.DM.Quartet-se.7787.htm2019-11-05 22:20 64k
[TXT]20161010.1547.19.DM.RadStorm-te.7787.htm2019-11-05 22:20 60k
[TXT]20161010.1551.46.DM.RaskasarSE.7787.htm2019-11-05 22:20 108k
[TXT]20161010.1707.04.DM.Revenge-fe.7787.htm2019-11-05 22:20 64k
[TXT]20161010.1712.49.DM.Sepulchrum-LP-se.7787.htm2019-11-05 22:20 68k
[TXT]20161010.1900.03.DM.Serenity.7787.htm2019-11-05 22:20 72k
[TXT]20161010.1906.22.DM.SleepyTownTE.7787.htm2019-11-05 22:20 96k
[TXT]20161010.1911.45.DM.StalwartXL.7787.htm2019-11-05 22:20 80k
[TXT]20161010.1917.32.DM.Tempest.7787.htm2019-11-05 22:20 108k
[TXT]20161010.1924.39.DM.TerraIII.7787.htm2019-11-05 22:20 176k
[TXT]20161010.1939.54.DM.Toll.7787.htm2019-11-05 22:20 152k
[TXT]20161010.1955.47.DM.ubUrbanSE.7787.htm2019-11-05 22:20 132k
[TXT]20161010.2007.18.DM.VengadorV.7787.htm2019-11-05 22:20 116k
[TXT]20161010.2016.58.DM.VerdanaTE.7787.htm2019-11-05 22:20 92k
[TXT]20161010.2026.43.DM.Viridian-TOURNEY.7787.htm2019-11-05 22:20 64k
[TXT]20161010.2033.07.DM.Xymoron-VI.7787.htm2019-11-05 22:20 100k
[TXT]20161010.2042.29.DM.Z-Axis-Inspector.7787.htm2019-11-05 22:20 76k
[TXT]20161011.0009.00.DM.ZerckTE.7787.htm2019-11-05 22:20 84k
[TXT]20161011.0018.38.DM.AggressiveII.7787.htm2019-11-05 22:20 84k
[TXT]20161011.0028.06.DM.Agony.7787.htm2019-11-05 22:20 80k
[TXT]20161011.0034.07.DM.AloneintheDark.7787.htm2019-11-05 22:20 80k
[TXT]20161011.0043.22.DM.AnotherBrickInDeW00T.7787.htm2019-11-05 22:20 108k
[TXT]20161011.0050.50.DM.AnUphillBattle-se.7787.htm2019-11-05 22:20 68k
[TXT]20161011.0058.13.DM.Bakuretsu-se.7787.htm2019-11-05 22:20 84k
[TXT]20161011.0106.16.DM.BoneMill][st.7787.htm2019-11-05 22:20 68k
[TXT]20161011.0111.48.DM.BorneoSE.7787.htm2019-11-05 22:20 108k
[TXT]20161011.0120.50.DM.Bridge.7787.htm2019-11-05 22:20 100k
[TXT]20161011.0259.14.DM.Cityzen-se.7787.htm2019-11-05 22:20 84k
[TXT]20161011.0307.06.DM.Coke.7787.htm2019-11-05 22:20 84k
[TXT]20161011.0315.23.DM.CrypticSE.7787.htm2019-11-05 22:20 100k
[TXT]20161011.0326.30.DM.Curse][-te.7787.htm2019-11-05 22:20 84k
[TXT]20161011.0442.05.DM.DarkMindII.7787.htm2019-11-05 22:20 72k
[TXT]20161011.0449.53.DM.DeckHalf420.7787.htm2019-11-05 22:20 96k
[TXT]20161011.0456.56.DM.Distinctive.7787.htm2019-11-05 22:20 92k
[TXT]20161011.0507.31.DM.Draven.7787.htm2019-11-05 22:20 96k
[TXT]20161011.0521.05.DM.EmpoweredIV.7787.htm2019-11-05 22:20 68k
[TXT]20161011.0527.45.DM.Equilibrium-SE.7787.htm2019-11-05 22:20 92k
[TXT]20161011.0536.14.DM.Fade-se.7787.htm2019-11-05 22:20 84k
[TXT]20161011.0544.28.DM.Fear-se.7787.htm2019-11-05 22:20 68k
[TXT]20161011.0552.19.DM.Foom200.7787.htm2019-11-05 22:20 116k
[TXT]20161011.0600.49.DM.GatakaFE.7787.htm2019-11-05 22:20 84k
[TXT]20161011.0610.12.DM.GaugeLoathing.7787.htm2019-11-05 22:20 84k
[TXT]20161011.0618.03.DM.HellsGateIII.7787.htm2019-11-05 22:20 88k
[TXT]20161011.0628.18.DM.JB-Chud.7787.htm2019-11-05 22:20 108k
[TXT]20161011.0635.59.DM.Liandri.7787.htm2019-11-05 22:20 104k
[TXT]20161011.0643.58.DM.Lostlands-se.7787.htm2019-11-05 22:20 104k
[TXT]20161011.0656.32.DM.MadScientistsLair-se.7787.htm2019-11-05 22:20 68k
[TXT]20161011.0813.23.DM.Magma-se.7787.htm2019-11-05 22:20 68k
[TXT]20161011.0820.29.DM.MenaceV3-se.7787.htm2019-11-05 22:20 80k
[TXT]20161011.0843.17.DM.Mojo2013.7787.htm2019-11-05 22:20 80k
[TXT]20161011.0849.43.DM.MoonbaseSE.7787.htm2019-11-05 22:20 116k
[TXT]20161011.0857.09.DM.Nexo-se.7787.htm2019-11-05 22:20 84k
[TXT]20161011.0902.53.DM.Olden-se.7787.htm2019-11-05 22:20 68k
[TXT]20161011.0908.43.DM.Outland-ve.7787.htm2019-11-05 22:20 64k
[TXT]20161011.0913.53.DM.Pier41se.7787.htm2019-11-05 22:20 60k
[TXT]20161011.0918.06.DM.Quartet-se.7787.htm2019-11-05 22:20 60k
[TXT]20161011.0922.51.DM.RadStorm-te.7787.htm2019-11-05 22:20 60k
[TXT]20161011.1001.13.DM.RaskasarSE.7787.htm2019-11-05 22:20 108k
[TXT]20161011.1006.12.DM.Revenge-fe.7787.htm2019-11-05 22:20 60k
[TXT]20161011.1010.27.DM.Sepulchrum-LP-se.7787.htm2019-11-05 22:20 84k
[TXT]20161011.1106.06.DM.Serenity.7787.htm2019-11-05 22:20 76k
[TXT]20161011.1114.40.DM.SleepyTownTE.7787.htm2019-11-05 22:20 100k
[TXT]20161011.1121.16.DM.StalwartXL.7787.htm2019-11-05 22:20 72k
[TXT]20161011.1126.16.DM.Tempest.7787.htm2019-11-05 22:20 116k
[TXT]20161011.1134.25.DM.TerraIII.7787.htm2019-11-05 22:20 100k
[TXT]20161011.1145.10.DM.Toll.7787.htm2019-11-05 22:20 68k
[TXT]20161011.1151.42.DM.ubUrbanSE.7787.htm2019-11-05 22:20 80k
[TXT]20161011.1158.33.DM.VengadorV.7787.htm2019-11-05 22:20 108k
[TXT]20161011.1208.08.DM.VerdanaTE.7787.htm2019-11-05 22:20 92k
[TXT]20161011.1222.12.DM.Viridian-TOURNEY.7787.htm2019-11-05 22:20 64k
[TXT]20161011.1320.07.DM.Xymoron-VI.7787.htm2019-11-05 22:20 84k
[TXT]20161011.1328.19.DM.Z-Axis-Inspector.7787.htm2019-11-05 22:20 72k
[TXT]20161011.1336.01.DM.ZerckTE.7787.htm2019-11-05 22:20 80k
[TXT]20161011.1344.34.DM.AggressiveII.7787.htm2019-11-05 22:20 88k
[TXT]20161011.1355.11.DM.Agony.7787.htm2019-11-05 22:20 84k
[TXT]20161011.1402.51.DM.AloneintheDark.7787.htm2019-11-05 22:20 84k
[TXT]20161011.1412.58.DM.AnotherBrickInDeW00T.7787.htm2019-11-05 22:20 116k
[TXT]20161011.1423.02.DM.AnUphillBattle-se.7787.htm2019-11-05 22:20 68k
[TXT]20161011.1429.19.DM.Bakuretsu-se.7787.htm2019-11-05 22:20 96k
[TXT]20161011.1438.45.DM.BoneMill][st.7787.htm2019-11-05 22:20 76k
[TXT]20161011.1443.33.DM.BorneoSE.7787.htm2019-11-05 22:20 104k
[TXT]20161011.1459.59.DM.Bridge.7787.htm2019-11-05 22:20 76k
[TXT]20161011.1750.46.DM.Cityzen-se.7787.htm2019-11-05 22:20 88k
[TXT]20161011.1756.49.DM.Coke.7787.htm2019-11-05 22:20 80k
[TXT]20161011.1802.11.DM.CrypticSE.7787.htm2019-11-05 22:20 104k
[TXT]20161011.1810.12.DM.Curse][-te.7787.htm2019-11-05 22:20 84k
[TXT]20161011.1815.05.DM.DarkMindII.7787.htm2019-11-05 22:20 68k
[TXT]20161011.1821.45.DM.DeckHalf420.7787.htm2019-11-05 22:20 96k
[TXT]20161011.1827.28.DM.Distinctive.7787.htm2019-11-05 22:20 76k
[TXT]20161011.1832.13.DM.Draven.7787.htm2019-11-05 22:20 144k
[TXT]20161011.1845.52.DM.EmpoweredIV.7787.htm2019-11-05 22:20 76k
[TXT]20161011.1851.53.DM.Equilibrium-SE.7787.htm2019-11-05 22:20 68k
[TXT]20161011.1855.30.DM.Fade-se.7787.htm2019-11-05 22:20 84k
[TXT]20161011.1926.43.DM.Fear-se.7787.htm2019-11-05 22:21 96k
[TXT]20161011.1933.29.DM.Foom200.7787.htm2019-11-05 22:21 136k
[TXT]20161011.1944.25.DM.GatakaFE.7787.htm2019-11-05 22:21 132k
[TXT]20161011.1959.07.DM.GaugeLoathing.7787.htm2019-11-05 22:21 76k
[TXT]20161011.2006.14.DM.HellsGateIII.7787.htm2019-11-05 22:21 72k
[TXT]20161011.2011.20.DM.JB-Chud.7787.htm2019-11-05 22:21 96k
[TXT]20161011.2015.40.DM.Liandri.7787.htm2019-11-05 22:21 84k
[TXT]20161011.2021.17.DM.Lostlands-se.7787.htm2019-11-05 22:21 64k
[TXT]20161011.2025.20.DM.MadScientistsLair-se.7787.htm2019-11-05 22:21 76k
[TXT]20161011.2032.02.DM.Magma-se.7787.htm2019-11-05 22:21 60k
[TXT]20161011.2036.42.DM.MenaceV3-se.7787.htm2019-11-05 22:21 76k
[TXT]20161011.2041.29.DM.Mojo2013.7787.htm2019-11-05 22:21 80k
[TXT]20161011.2047.29.DM.MoonbaseSE.7787.htm2019-11-05 22:21 136k
[TXT]20161011.2056.13.DM.Nexo-se.7787.htm2019-11-05 22:21 124k
[TXT]20161011.2108.15.DM.Olden-se.7787.htm2019-11-05 22:21 64k
[TXT]20161011.2113.34.DM.Outland-ve.7787.htm2019-11-05 22:21 64k
[TXT]20161011.2118.12.DM.Pier41se.7787.htm2019-11-05 22:21 60k
[TXT]20161011.2122.10.DM.Quartet-se.7787.htm2019-11-05 22:21 64k
[TXT]20161011.2127.02.DM.RadStorm-te.7787.htm2019-11-05 22:21 80k
[TXT]20161011.2136.10.DM.RaskasarSE.7787.htm2019-11-05 22:21 156k
[TXT]20161011.2239.20.DM.Revenge-fe.7787.htm2019-11-05 22:21 64k
[TXT]20161011.2254.21.DM.Sepulchrum-LP-se.7787.htm2019-11-05 22:21 76k
[TXT]20161011.2259.40.DM.Serenity.7787.htm2019-11-05 22:21 56k
[TXT]20161011.2303.51.DM.SleepyTownTE.7787.htm2019-11-05 22:21 92k
[TXT]20161011.2308.54.DM.StalwartXL.7787.htm2019-11-05 22:21 68k
[TXT]20161011.2313.40.DM.Tempest.7787.htm2019-11-05 22:21 88k
[TXT]20161011.2319.21.DM.TerraIII.7787.htm2019-11-05 22:21 88k
[TXT]20161011.2326.34.DM.Toll.7787.htm2019-11-05 22:21 72k
[TXT]20161011.2332.31.DM.ubUrbanSE.7787.htm2019-11-05 22:21 72k
[TXT]20161011.2337.31.DM.VengadorV.7787.htm2019-11-05 22:21 84k
[TXT]20161011.2342.53.DM.VerdanaTE.7787.htm2019-11-05 22:21 84k
[TXT]20161011.2353.04.DM.Viridian-TOURNEY.7787.htm2019-11-05 22:21 84k
[TXT]20161012.0002.25.DM.Xymoron-VI.7787.htm2019-11-05 22:21 76k
[TXT]20161012.0241.31.DM.Z-Axis-Inspector.7787.htm2019-11-05 22:21 68k
[TXT]20161012.2159.23.DM.ZerckTE.7787.htm2019-11-05 22:21 72k
[TXT]20161012.2205.08.DM.AggressiveII.7787.htm2019-11-05 22:21 84k
[TXT]20161012.2212.39.DM.Agony.7787.htm2019-11-05 22:21 92k
[TXT]20161012.2346.36.DM.AloneintheDark.7787.htm2019-11-05 22:21 100k
[TXT]20161013.1550.08.DM.AnotherBrickInDeW00T.7787.htm2019-11-05 22:21 140k
[TXT]20161013.1615.42.DM.AnUphillBattle-se.7787.htm2019-11-05 22:21 96k
[TXT]20161013.1712.10.DM.Bakuretsu-se.7787.htm2019-11-05 22:21 76k
[TXT]20161013.1718.41.DM.BoneMill][st.7787.htm2019-11-05 22:21 64k
[TXT]20161013.1722.56.DM.BorneoSE.7787.htm2019-11-05 22:21 132k
[TXT]20161013.1734.54.DM.Bridge.7787.htm2019-11-05 22:21 80k
[TXT]20161013.1743.33.DM.Cityzen-se.7787.htm2019-11-05 22:21 80k
[TXT]20161013.1748.32.DM.Coke.7787.htm2019-11-05 22:21 76k
[TXT]20161013.1753.51.DM.CrypticSE.7787.htm2019-11-05 22:21 68k
[TXT]20161013.1758.19.DM.Curse][-te.7787.htm2019-11-05 22:21 76k
[TXT]20161013.1803.22.DM.DarkMindII.7787.htm2019-11-05 22:21 64k
[TXT]20161013.1808.22.DM.DeckHalf420.7787.htm2019-11-05 22:21 92k
[TXT]20161013.2051.37.DM.Distinctive.7787.htm2019-11-05 22:21 76k
[TXT]20161013.2103.26.DM.Draven.7787.htm2019-11-05 22:21 64k
[TXT]20161013.2109.05.DM.EmpoweredIV.7787.htm2019-11-05 22:21 64k
[TXT]20161013.2113.42.DM.Equilibrium-SE.7787.htm2019-11-05 22:21 72k
[TXT]20161013.2119.17.DM.Fade-se.7787.htm2019-11-05 22:21 72k
[TXT]20161013.2124.37.DM.Fear-se.7787.htm2019-11-05 22:21 64k
[TXT]20161013.2128.41.DM.Foom200.7787.htm2019-11-05 22:21 136k
[TXT]20161013.2140.08.DM.GatakaFE.7787.htm2019-11-05 22:21 96k
[TXT]20161013.2359.33.DM.GaugeLoathing.7787.htm2019-11-05 22:21 84k
[TXT]20161014.0008.43.DM.HellsGateIII.7787.htm2019-11-05 22:21 104k
[TXT]20161014.0021.13.DM.JB-Chud.7787.htm2019-11-05 22:21 100k
[TXT]20161014.0132.49.DM.Liandri.7787.htm2019-11-05 22:21 92k
[TXT]20161014.0140.34.DM.Lostlands-se.7787.htm2019-11-05 22:21 68k
[TXT]20161014.0149.43.DM.MadScientistsLair-se.7787.htm2019-11-05 22:21 84k
[TXT]20161014.0159.06.DM.Magma-se.7787.htm2019-11-05 22:21 64k
[TXT]20161014.0854.41.DM.MenaceV3-se.7787.htm2019-11-05 22:21 76k
[TXT]20161014.0859.56.DM.Mojo2013.7787.htm2019-11-05 22:21 76k
[TXT]20161014.1502.52.DM.MoonbaseSE.7787.htm2019-11-05 22:21 108k
[TXT]20161014.1644.39.DM.Nexo-se.7787.htm2019-11-05 22:21 72k
[TXT]20161014.1650.43.DM.Olden-se.7787.htm2019-11-05 22:21 64k
[TXT]20161014.1716.00.DM.Outland-ve.7787.htm2019-11-05 22:21 64k
[TXT]20161014.1720.56.DM.Pier41se.7787.htm2019-11-05 22:21 56k
[TXT]20161014.1725.14.DM.Quartet-se.7787.htm2019-11-05 22:21 68k
[TXT]20161014.1730.50.DM.RadStorm-te.7787.htm2019-11-05 22:21 84k
[TXT]20161014.1738.22.DM.RaskasarSE.7787.htm2019-11-05 22:21 132k
[TXT]20161014.1843.16.DM.Revenge-fe.7787.htm2019-11-05 22:21 112k
[TXT]20161014.1857.02.DM.Sepulchrum-LP-se.7787.htm2019-11-05 22:21 76k
[TXT]20161014.2023.16.DM.Serenity.7787.htm2019-11-05 22:21 56k
[TXT]20161014.2027.54.DM.SleepyTownTE.7787.htm2019-11-05 22:21 92k
[TXT]20161014.2032.29.DM.StalwartXL.7787.htm2019-11-05 22:21 68k
[TXT]20161014.2036.58.DM.Tempest.7787.htm2019-11-05 22:21 88k
[TXT]20161014.2042.17.DM.TerraIII.7787.htm2019-11-05 22:21 92k
[TXT]20161014.2049.55.DM.Toll.7787.htm2019-11-05 22:21 64k
[TXT]20161014.2054.56.DM.ubUrbanSE.7787.htm2019-11-05 22:21 68k
[TXT]20161014.2059.49.DM.VengadorV.7787.htm2019-11-05 22:21 84k
[TXT]20161014.2108.12.DM.VerdanaTE.7787.htm2019-11-05 22:21 72k
[TXT]20161014.2114.06.DM.Viridian-TOURNEY.7787.htm2019-11-05 22:21 64k
[TXT]20161014.2119.06.DM.Xymoron-VI.7787.htm2019-11-05 22:21 92k
[TXT]20161014.2127.00.DM.Z-Axis-Inspector.7787.htm2019-11-05 22:21 100k
[TXT]20161014.2153.03.DM.ZerckTE.7787.htm2019-11-05 22:21 68k
[TXT]20161014.2157.56.DM.AggressiveII.7787.htm2019-11-05 22:21 76k
[TXT]20161014.2203.02.DM.Agony.7787.htm2019-11-05 22:21 88k
[TXT]20161014.2208.52.DM.AloneintheDark.7787.htm2019-11-05 22:21 72k
[TXT]20161014.2215.14.DM.AnotherBrickInDeW00T.7787.htm2019-11-05 22:21 100k
[TXT]20161014.2219.41.DM.AnUphillBattle-se.7787.htm2019-11-05 22:21 88k
[TXT]20161015.0213.43.DM.Bakuretsu-se.7787.htm2019-11-05 22:21 104k
[TXT]20161015.0225.52.DM.BoneMill][st.7787.htm2019-11-05 22:21 68k
[TXT]20161015.1301.43.DM.BorneoSE.7787.htm2019-11-05 22:21 104k
[TXT]20161015.1529.29.DM.Bridge.7787.htm2019-11-05 22:21 108k
[TXT]20161015.1538.18.DM.Cityzen-se.7787.htm2019-11-05 22:21 96k
[TXT]20161015.1545.39.DM.Coke.7787.htm2019-11-05 22:21 108k
[TXT]20161015.1553.33.DM.CrypticSE.7787.htm2019-11-05 22:21 72k
[TXT]20161015.1639.18.DM.Curse][-te.7787.htm2019-11-05 22:21 76k
[TXT]20161015.1644.35.DM.DarkMindII.7787.htm2019-11-05 22:21 64k
[TXT]20161015.1649.48.DM.DeckHalf420.7787.htm2019-11-05 22:21 152k
[TXT]20161015.1712.46.DM.Distinctive.7787.htm2019-11-05 22:21 76k
[TXT]20161015.1718.37.DM.Draven.7787.htm2019-11-05 22:21 68k
[TXT]20161015.1724.27.DM.EmpoweredIV.7787.htm2019-11-05 22:21 64k
[TXT]20161015.1729.28.DM.Equilibrium-SE.7787.htm2019-11-05 22:21 72k
[TXT]20161015.1734.06.DM.Fade-se.7787.htm2019-11-05 22:22 76k
[TXT]20161015.1923.05.DM.Fear-se.7787.htm2019-11-05 22:22 64k
[TXT]20161015.1927.53.DM.Foom200.7787.htm2019-11-05 22:22 104k
[TXT]20161015.1934.18.DM.GatakaFE.7787.htm2019-11-05 22:22 72k
[TXT]20161015.1939.21.DM.GaugeLoathing.7787.htm2019-11-05 22:22 76k
[TXT]20161015.1944.42.DM.HellsGateIII.7787.htm2019-11-05 22:22 76k
[TXT]20161015.1951.23.DM.JB-Chud.7787.htm2019-11-05 22:22 100k
[TXT]20161015.1956.46.DM.Liandri.7787.htm2019-11-05 22:22 84k
[TXT]20161015.2108.43.DM.Lostlands-se.7787.htm2019-11-05 22:22 64k
[TXT]20161015.2113.45.DM.MadScientistsLair-se.7787.htm2019-11-05 22:22 64k
[TXT]20161015.2118.01.DM.Magma-se.7787.htm2019-11-05 22:22 64k
[TXT]20161015.2122.43.DM.MenaceV3-se.7787.htm2019-11-05 22:22 80k
[TXT]20161015.2129.05.DM.Mojo2013.7787.htm2019-11-05 22:22 76k
[TXT]20161015.2144.35.DM.MoonbaseSE.7787.htm2019-11-05 22:22 132k
[TXT]20161015.2151.41.DM.Nexo-se.7787.htm2019-11-05 22:22 88k
[TXT]20161015.2158.03.DM.Olden-se.7787.htm2019-11-05 22:22 64k
[TXT]20161015.2203.10.DM.Outland-ve.7787.htm2019-11-05 22:22 64k
[TXT]20161015.2207.53.DM.Pier41se.7787.htm2019-11-05 22:22 80k
[TXT]20161015.2215.12.DM.Quartet-se.7787.htm2019-11-05 22:22 68k
[TXT]20161015.2221.12.DM.RadStorm-te.7787.htm2019-11-05 22:22 64k
[TXT]20161015.2225.45.DM.RaskasarSE.7787.htm2019-11-05 22:22 140k
[TXT]20161015.2236.00.DM.Revenge-fe.7787.htm2019-11-05 22:22 80k
[TXT]20161016.0022.02.DM.Sepulchrum-LP-se.7787.htm2019-11-05 22:22 76k
[TXT]20161016.0027.45.DM.Serenity.7787.htm2019-11-05 22:22 60k
[TXT]20161016.0032.56.DM.SleepyTownTE.7787.htm2019-11-05 22:22 92k
[TXT]20161016.1207.31.DM.StalwartXL.7787.htm2019-11-05 22:22 68k
[TXT]20161016.1211.15.DM.Tempest.7787.htm2019-11-05 22:22 88k
[TXT]20161016.1216.28.DM.TerraIII.7787.htm2019-11-05 22:22 88k
[TXT]20161016.1223.19.DM.Toll.7787.htm2019-11-05 22:22 64k
[TXT]20161016.1228.35.DM.ubUrbanSE.7787.htm2019-11-05 22:22 84k
[TXT]20161016.1234.23.DM.VengadorV.7787.htm2019-11-05 22:22 84k
[TXT]20161016.1239.57.DM.VerdanaTE.7787.htm2019-11-05 22:22 68k
[TXT]20161016.1244.13.DM.Viridian-TOURNEY.7787.htm2019-11-05 22:22 64k
[TXT]20161016.1248.46.DM.Xymoron-VI.7787.htm2019-11-05 22:22 72k
[TXT]20161016.1253.32.DM.Z-Axis-Inspector.7787.htm2019-11-05 22:22 60k
[TXT]20161016.1258.01.DM.ZerckTE.7787.htm2019-11-05 22:22 68k
[TXT]20161016.1302.54.DM.AggressiveII.7787.htm2019-11-05 22:22 80k
[TXT]20161016.1308.54.DM.Agony.7787.htm2019-11-05 22:22 80k
[TXT]20161016.1314.17.DM.AloneintheDark.7787.htm2019-11-05 22:22 72k
[TXT]20161016.1319.24.DM.AnotherBrickInDeW00T.7787.htm2019-11-05 22:22 96k
[TXT]20161016.1324.00.DM.AnUphillBattle-se.7787.htm2019-11-05 22:22 72k
[TXT]20161016.1401.47.DM.Bakuretsu-se.7787.htm2019-11-05 22:22 80k
[TXT]20161016.1410.57.DM.BoneMill][st.7787.htm2019-11-05 22:22 100k
[TXT]20161016.1417.51.DM.BorneoSE.7787.htm2019-11-05 22:22 92k
[TXT]20161016.1510.37.DM.Bridge.7787.htm2019-11-05 22:22 76k
[TXT]20161016.1515.51.DM.Cityzen-se.7787.htm2019-11-05 22:22 72k
[TXT]20161016.1520.23.DM.Coke.7787.htm2019-11-05 22:22 96k
[TXT]20161016.1528.24.DM.CrypticSE.7787.htm2019-11-05 22:22 72k
[TXT]20161016.1533.01.DM.Curse][-te.7787.htm2019-11-05 22:22 124k
[TXT]20161016.2110.56.DM.DarkMindII.7787.htm2019-11-05 22:22 112k
[TXT]20161016.2120.55.DM.DeckHalf420.7787.htm2019-11-05 22:22 92k
[TXT]20161016.2126.10.DM.Distinctive.7787.htm2019-11-05 22:22 76k
[TXT]20161016.2131.04.DM.Draven.7787.htm2019-11-05 22:22 84k
[TXT]20161016.2136.08.DM.EmpoweredIV.7787.htm2019-11-05 22:22 112k
[TXT]20161016.2142.57.DM.Equilibrium-SE.7787.htm2019-11-05 22:22 96k
[TXT]20161017.0144.24.DM.Fade-se.7787.htm2019-11-05 22:22 84k
[TXT]20161017.1107.56.DM.Fear-se.7787.htm2019-11-05 22:22 64k
[TXT]20161017.1112.47.DM.Foom200.7787.htm2019-11-05 22:22 120k
[TXT]20161017.1758.42.DM.GatakaFE.7787.htm2019-11-05 22:22 80k
[TXT]20161017.1807.00.DM.GaugeLoathing.7787.htm2019-11-05 22:22 96k
[TXT]20161017.1818.40.DM.HellsGateIII.7787.htm2019-11-05 22:22 88k
[TXT]20161017.1851.41.DM.JB-Chud.7787.htm2019-11-05 22:22 108k
[TXT]20161017.1858.59.DM.Liandri.7787.htm2019-11-05 22:22 100k
[TXT]20161017.1909.14.DM.Lostlands-se.7787.htm2019-11-05 22:22 68k
[TXT]20161017.1917.10.DM.MadScientistsLair-se.7787.htm2019-11-05 22:22 104k
[TXT]20161017.1931.53.DM.Magma-se.7787.htm2019-11-05 22:22 76k
[TXT]20161017.1937.15.DM.MenaceV3-se.7787.htm2019-11-05 22:22 80k
[TXT]20161017.1944.09.DM.Mojo2013.7787.htm2019-11-05 22:22 80k
[TXT]20161017.1952.00.DM.MoonbaseSE.7787.htm2019-11-05 22:22 108k
[TXT]20161017.1957.39.DM.Nexo-se.7787.htm2019-11-05 22:22 76k
[TXT]20161017.2003.19.DM.Olden-se.7787.htm2019-11-05 22:22 64k
[TXT]20161017.2008.10.DM.Outland-ve.7787.htm2019-11-05 22:22 60k
[TXT]20161017.2109.34.DM.Pier41se.7787.htm2019-11-05 22:22 60k
[TXT]20161017.2114.08.DM.Quartet-se.7787.htm2019-11-05 22:22 68k
[TXT]20161017.2119.30.DM.RadStorm-te.7787.htm2019-11-05 22:22 60k
[TXT]20161017.2123.46.DM.RaskasarSE.7787.htm2019-11-05 22:22 100k
[TXT]20161017.2128.49.DM.Revenge-fe.7787.htm2019-11-05 22:22 104k
[TXT]20161018.0217.13.DM.Sepulchrum-LP-se.7787.htm2019-11-05 22:22 76k
[TXT]20161018.1458.40.DM.Serenity.7787.htm2019-11-05 22:22 76k
[TXT]20161018.1533.43.DM.SleepyTownTE.7787.htm2019-11-05 22:22 92k
[TXT]20161018.1545.39.DM.StalwartXL.7787.htm2019-11-05 22:22 68k
[TXT]20161018.1549.21.DM.Tempest.7787.htm2019-11-05 22:22 88k
[TXT]20161018.1924.50.DM.TerraIII.7787.htm2019-11-05 22:22 88k
[TXT]20161018.1930.51.DM.Toll.7787.htm2019-11-05 22:22 64k
[TXT]20161018.1935.30.DM.ubUrbanSE.7787.htm2019-11-05 22:22 92k
[TXT]20161018.1941.29.DM.VengadorV.7787.htm2019-11-05 22:22 84k
[TXT]20161018.1946.03.DM.VerdanaTE.7787.htm2019-11-05 22:22 72k
[TXT]20161018.2320.55.DM.Viridian-TOURNEY.7787.htm2019-11-05 22:22 64k
[TXT]20161018.2326.12.DM.Xymoron-VI.7787.htm2019-11-05 22:22 76k
[TXT]20161018.2330.59.DM.Z-Axis-Inspector.7787.htm2019-11-05 22:22 64k
[TXT]20161018.2336.24.DM.ZerckTE.7787.htm2019-11-05 22:22 72k
[TXT]20161018.2340.53.DM.AggressiveII.7787.htm2019-11-05 22:22 84k
[TXT]20161018.2348.22.DM.Agony.7787.htm2019-11-05 22:22 100k
[TXT]20161019.0014.18.DM.AloneintheDark.7787.htm2019-11-05 22:22 80k
[TXT]20161019.0509.28.DM.AnotherBrickInDeW00T.7787.htm2019-11-05 22:22 144k
[TXT]20161019.0524.05.DM.AnUphillBattle-se.7787.htm2019-11-05 22:22 108k
[TXT]20161019.1204.44.DM.Bakuretsu-se.7787.htm2019-11-05 22:22 116k
[TXT]20161019.1217.11.DM.BoneMill][st.7787.htm2019-11-05 22:22 68k
[TXT]20161019.1407.42.DM.BorneoSE.7787.htm2019-11-05 22:22 104k
[TXT]20161019.1415.06.DM.Bridge.7787.htm2019-11-05 22:22 76k
[TXT]20161019.1420.43.DM.Cityzen-se.7787.htm2019-11-05 22:22 84k
[TXT]20161019.1427.28.DM.Coke.7787.htm2019-11-05 22:22 92k
[TXT]20161019.1438.16.DM.CrypticSE.7787.htm2019-11-05 22:22 68k
[TXT]20161019.1456.15.DM.Curse][-te.7787.htm2019-11-05 22:22 76k
[TXT]20161019.1500.34.DM.DarkMindII.7787.htm2019-11-05 22:22 84k
[TXT]20161019.1809.19.DM.DeckHalf420.7787.htm2019-11-05 22:22 96k
[TXT]20161019.1910.05.DM.Distinctive.7787.htm2019-11-05 22:22 80k
[TXT]20161019.1917.27.DM.Draven.7787.htm2019-11-05 22:22 68k
[TXT]20161019.1923.11.DM.EmpoweredIV.7787.htm2019-11-05 22:22 80k
[TXT]20161019.1931.38.DM.Equilibrium-SE.7787.htm2019-11-05 22:23 80k
[TXT]20161019.1950.10.DM.Fade-se.7787.htm2019-11-05 22:23 84k
[TXT]20161019.1957.54.DM.Fear-se.7787.htm2019-11-05 22:23 68k
[TXT]20161019.2003.50.DM.Foom200.7787.htm2019-11-05 22:23 128k
[TXT]20161019.2012.34.DM.GatakaFE.7787.htm2019-11-05 22:23 84k
[TXT]20161019.2021.06.DM.GaugeLoathing.7787.htm2019-11-05 22:23 104k
[TXT]20161019.2033.35.DM.HellsGateIII.7787.htm2019-11-05 22:23 108k
[TXT]20161019.2231.38.DM.JB-Chud.7787.htm2019-11-05 22:23 140k
[TXT]20161019.2242.17.DM.Liandri.7787.htm2019-11-05 22:23 96k
[TXT]20161019.2250.40.DM.Lostlands-se.7787.htm2019-11-05 22:23 88k
[TXT]20161019.2301.30.DM.MadScientistsLair-se.7787.htm2019-11-05 22:23 80k
[TXT]20161019.2308.19.DM.Magma-se.7787.htm2019-11-05 22:23 88k
[TXT]20161019.2318.35.DM.MenaceV3-se.7787.htm2019-11-05 22:23 84k
[TXT]20161020.0134.50.DM.Mojo2013.7787.htm2019-11-05 22:23 112k
[TXT]20161020.0145.24.DM.MoonbaseSE.7787.htm2019-11-05 22:23 136k
[TXT]20161020.0151.54.DM.Nexo-se.7787.htm2019-11-05 22:23 84k
[TXT]20161020.0158.31.DM.Olden-se.7787.htm2019-11-05 22:23 72k
[TXT]20161020.0204.51.DM.Outland-ve.7787.htm2019-11-05 22:23 68k
[TXT]20161020.0210.52.DM.Pier41se.7787.htm2019-11-05 22:23 92k
[TXT]20161020.0219.37.DM.Quartet-se.7787.htm2019-11-05 22:23 84k
[TXT]20161020.0229.34.DM.RadStorm-te.7787.htm2019-11-05 22:23 68k
[TXT]20161020.0235.44.DM.RaskasarSE.7787.htm2019-11-05 22:23 144k
[TXT]20161020.0243.51.DM.Revenge-fe.7787.htm2019-11-05 22:23 76k
[TXT]20161020.0253.34.DM.Sepulchrum-LP-se.7787.htm2019-11-05 22:23 80k
[TXT]20161020.0259.37.DM.Serenity.7787.htm2019-11-05 22:23 76k
[TXT]20161020.0308.05.DM.SleepyTownTE.7787.htm2019-11-05 22:23 136k
[TXT]20161020.0316.41.DM.StalwartXL.7787.htm2019-11-05 22:23 80k
[TXT]20161020.0324.05.DM.Tempest.7787.htm2019-11-05 22:23 104k
[TXT]20161020.0333.19.DM.TerraIII.7787.htm2019-11-05 22:23 116k
[TXT]20161020.0344.53.DM.Toll.7787.htm2019-11-05 22:23 68k
[TXT]20161020.0350.25.DM.ubUrbanSE.7787.htm2019-11-05 22:23 104k
[TXT]20161020.0402.30.DM.VengadorV.7787.htm2019-11-05 22:23 88k
[TXT]20161020.0409.04.DM.VerdanaTE.7787.htm2019-11-05 22:23 112k
[TXT]20161020.0420.57.DM.Viridian-TOURNEY.7787.htm2019-11-05 22:23 84k
[TXT]20161020.0428.04.DM.Xymoron-VI.7787.htm2019-11-05 22:23 120k
[TXT]20161020.0438.24.DM.Z-Axis-Inspector.7787.htm2019-11-05 22:23 112k
[TXT]20161020.0454.21.DM.ZerckTE.7787.htm2019-11-05 22:23 72k
[TXT]20161020.1159.50.DM.AggressiveII.7787.htm2019-11-05 22:23 96k
[TXT]20161020.1222.54.DM.Agony.7787.htm2019-11-05 22:23 104k
[TXT]20161020.1230.56.DM.AloneintheDark.7787.htm2019-11-05 22:23 104k
[TXT]20161020.1246.31.DM.AnotherBrickInDeW00T.7787.htm2019-11-05 22:23 100k
[TXT]20161020.1837.22.DM.AnUphillBattle-se.7787.htm2019-11-05 22:23 64k
[TXT]20161020.1841.22.DM.Bakuretsu-se.7787.htm2019-11-05 22:23 72k
[TXT]20161020.1846.47.DM.BoneMill][st.7787.htm2019-11-05 22:23 64k
[TXT]20161020.1851.30.DM.BorneoSE.7787.htm2019-11-05 22:23 124k
[TXT]20161020.2004.25.DM.Bridge.7787.htm2019-11-05 22:23 76k
[TXT]20161020.2010.11.DM.Cityzen-se.7787.htm2019-11-05 22:23 80k
[TXT]20161020.2015.30.DM.Coke.7787.htm2019-11-05 22:23 80k
[TXT]20161020.2020.07.DM.CrypticSE.7787.htm2019-11-05 22:23 68k
[TXT]20161020.2023.59.DM.Curse][-te.7787.htm2019-11-05 22:23 124k
[TXT]20161020.2042.37.DM.DarkMindII.7787.htm2019-11-05 22:23 84k
[TXT]20161020.2052.29.DM.DeckHalf420.7787.htm2019-11-05 22:23 124k
[TXT]20161020.2101.47.DM.Distinctive.7787.htm2019-11-05 22:23 80k
[TXT]20161020.2219.21.DM.Draven.7787.htm2019-11-05 22:23 68k
[TXT]20161020.2225.20.DM.EmpoweredIV.7787.htm2019-11-05 22:23 64k
[TXT]20161020.2229.53.DM.Equilibrium-SE.7787.htm2019-11-05 22:23 76k
[TXT]20161020.2236.15.DM.Fade-se.7787.htm2019-11-05 22:23 96k
[TXT]20161020.2245.09.DM.Fear-se.7787.htm2019-11-05 22:23 112k
[TXT]20161020.2256.39.DM.Foom200.7787.htm2019-11-05 22:23 140k
[TXT]20161021.0041.43.DM.GatakaFE.7787.htm2019-11-05 22:23 76k
[TXT]20161021.0457.56.DM.GaugeLoathing.7787.htm2019-11-05 22:23 72k
[TXT]20161021.0502.20.DM.HellsGateIII.7787.htm2019-11-05 22:23 76k
[TXT]20161021.0521.09.DM.JB-Chud.7787.htm2019-11-05 22:23 100k
[TXT]20161021.0525.56.DM.Liandri.7787.htm2019-11-05 22:23 108k
[TXT]20161021.1238.07.DM.Lostlands-se.7787.htm2019-11-05 22:23 64k
[TXT]20161021.1954.12.DM.MadScientistsLair-se.7787.htm2019-11-05 22:23 64k
[TXT]20161021.1958.23.DM.Magma-se.7787.htm2019-11-05 22:23 68k
[TXT]20161021.2003.43.DM.MenaceV3-se.7787.htm2019-11-05 22:23 104k
[TXT]20161021.2014.49.DM.Mojo2013.7787.htm2019-11-05 22:23 104k
[TXT]20161021.2100.25.DM.MoonbaseSE.7787.htm2019-11-05 22:23 152k
[TXT]20161021.2112.41.DM.Nexo-se.7787.htm2019-11-05 22:23 72k
[TXT]20161021.2117.34.DM.Olden-se.7787.htm2019-11-05 22:23 64k
[TXT]20161021.2122.03.DM.Outland-ve.7787.htm2019-11-05 22:23 64k
[TXT]20161021.2126.21.DM.Pier41se.7787.htm2019-11-05 22:23 56k
[TXT]20161021.2129.42.DM.Quartet-se.7787.htm2019-11-05 22:23 68k
[TXT]20161021.2134.50.DM.RadStorm-te.7787.htm2019-11-05 22:23 64k
[TXT]20161021.2202.01.DM.RaskasarSE.7787.htm2019-11-05 22:23 168k
[TXT]20161021.2210.20.DM.Revenge-fe.7787.htm2019-11-05 22:23 72k
[TXT]20161021.2218.33.DM.Sepulchrum-LP-se.7787.htm2019-11-05 22:23 96k
[TXT]20161021.2227.13.DM.Serenity.7787.htm2019-11-05 22:23 60k
[TXT]20161021.2241.27.DM.SleepyTownTE.7787.htm2019-11-05 22:23 96k
[TXT]20161021.2246.35.DM.StalwartXL.7787.htm2019-11-05 22:23 68k
[TXT]20161021.2250.24.DM.Tempest.7787.htm2019-11-05 22:23 120k
[TXT]20161021.2303.07.DM.TerraIII.7787.htm2019-11-05 22:23 116k
[TXT]20161021.2317.21.DM.Toll.7787.htm2019-11-05 22:23 84k
[TXT]20161022.0004.27.DM.ubUrbanSE.7787.htm2019-11-05 22:23 88k
[TXT]20161022.0107.42.DM.VengadorV.7787.htm2019-11-05 22:23 120k
[TXT]20161022.0121.46.DM.VerdanaTE.7787.htm2019-11-05 22:23 100k
[TXT]20161022.0134.42.DM.Viridian-TOURNEY.7787.htm2019-11-05 22:23 64k
[TXT]20161022.0220.35.DM.Xymoron-VI.7787.htm2019-11-05 22:23 76k
[TXT]20161022.0225.41.DM.Z-Axis-Inspector.7787.htm2019-11-05 22:23 88k
[TXT]20161022.0236.17.DM.ZerckTE.7787.htm2019-11-05 22:23 76k
[TXT]20161022.1109.08.DM.AggressiveII.7787.htm2019-11-05 22:23 80k
[TXT]20161022.1115.23.DM.Agony.7787.htm2019-11-05 22:23 76k
[TXT]20161022.1120.32.DM.AloneintheDark.7787.htm2019-11-05 22:23 100k
[TXT]20161022.1133.45.DM.AnotherBrickInDeW00T.7787.htm2019-11-05 22:23 100k
[TXT]20161022.1250.56.DM.AnUphillBattle-se.7787.htm2019-11-05 22:23 88k
[TXT]20161022.1302.10.DM.Bakuretsu-se.7787.htm2019-11-05 22:23 104k
[TXT]20161022.2211.39.DM.BoneMill][st.7787.htm2019-11-05 22:23 64k
[TXT]20161022.2216.31.DM.BorneoSE.7787.htm2019-11-05 22:23 88k
[TXT]20161022.2220.23.DM.Bridge.7787.htm2019-11-05 22:23 76k
[TXT]20161022.2225.29.DM.Cityzen-se.7787.htm2019-11-05 22:23 80k
[TXT]20161022.2230.46.DM.Coke.7787.htm2019-11-05 22:23 76k
[TXT]20161022.2235.48.DM.CrypticSE.7787.htm2019-11-05 22:23 88k
[TXT]20161022.2242.47.DM.Curse][-te.7787.htm2019-11-05 22:23 80k
[TXT]20161022.2249.43.DM.DarkMindII.7787.htm2019-11-05 22:23 68k
[TXT]20161022.2255.25.DM.DeckHalf420.7787.htm2019-11-05 22:24 112k
[TXT]20161023.1305.40.DM.Distinctive.7787.htm2019-11-05 22:24 120k
[TXT]20161023.1813.45.DM.Draven.7787.htm2019-11-05 22:24 64k
[TXT]20161023.1834.42.DM.EmpoweredIV.7787.htm2019-11-05 22:24 112k
[TXT]20161023.1847.24.DM.Equilibrium-SE.7787.htm2019-11-05 22:24 72k
[TXT]20161023.1905.23.DM.Fear-se.7787.htm2019-11-05 22:24 64k
[TXT]20161023.1910.01.DM.FoomFlood.7787.htm2019-11-05 22:24 72k
[TXT]20161023.1915.11.DM.Guardia-SE.7787.htm2019-11-05 22:24 92k
[TXT]20161023.1928.39.DM.HellsGateIII.7787.htm2019-11-05 22:24 84k
[TXT]20161023.2043.25.DM.LastCrusaderIII-TV.7787.htm2019-11-05 22:24 104k
[TXT]20161023.2049.59.DM.Liandri.7787.htm2019-11-05 22:24 84k
[TXT]20161023.2054.58.DM.Lostlands-se.7787.htm2019-11-05 22:24 64k
[TXT]20161023.2059.18.DM.MadScientistsLair-se.7787.htm2019-11-05 22:24 64k
[TXT]20161023.2104.04.DM.Magma-se.7787.htm2019-11-05 22:24 68k
[TXT]20161023.2109.14.DM.Malevolence.7787.htm2019-11-05 22:24 76k
[TXT]20161023.2113.50.DM.MenaceV3-se.7787.htm2019-11-05 22:24 116k
[TXT]20161023.2118.59.DM.MiseryTE.7787.htm2019-11-05 22:24 80k
[TXT]20161023.2125.08.DM.Mojo2013.7787.htm2019-11-05 22:24 76k
[TXT]20161023.2130.05.DM.MoonbaseSE.7787.htm2019-11-05 22:24 152k
[TXT]20161023.2145.33.DM.Nexo-se.7787.htm2019-11-05 22:24 72k
[TXT]20161023.2218.15.DM.Olden-se.7787.htm2019-11-05 22:24 64k
[TXT]20161023.2223.30.DM.Outland-ve.7787.htm2019-11-05 22:24 64k
[TXT]20161023.2228.59.DM.Pier41se.7787.htm2019-11-05 22:24 60k
[TXT]20161023.2234.11.DM.RadStorm-te.7787.htm2019-11-05 22:24 76k
[TXT]20161023.2243.04.DM.Raze-se.7787.htm2019-11-05 22:24 88k
[TXT]20161023.2300.18.DM.RealWorldGoneBad.7787.htm2019-11-05 22:24 72k
[TXT]20161024.0441.35.DM.Remorc-se.7787.htm2019-11-05 22:24 72k
[TXT]20161024.0537.36.DM.Revenge-fe.7787.htm2019-11-05 22:24 140k
[TXT]20161024.0751.53.DM.RideTheDragon.7787.htm2019-11-05 22:24 88k
[TXT]20161024.0919.03.DM.ScytheTE.7787.htm2019-11-05 22:24 88k
[TXT]20161024.1502.58.DM.StalwartXL.7787.htm2019-11-05 22:24 72k
[TXT]20161024.1508.58.DM.StreetFE.7787.htm2019-11-05 22:24 72k
[TXT]20161024.1822.50.DM.TerraIII.7787.htm2019-11-05 22:24 120k
[TXT]20161024.1946.41.DM.Toll.7787.htm2019-11-05 22:24 68k
[TXT]20161024.2007.22.DM.UnitIII.7787.htm2019-11-05 22:24 156k
[TXT]20161024.2025.10.DM.VengadorV.7787.htm2019-11-05 22:24 84k
[TXT]20161024.2032.17.DM.VerdanaTE.7787.htm2019-11-05 22:24 72k
[TXT]20161024.2037.17.DM.Viridian-TOURNEY.7787.htm2019-11-05 22:24 60k
[TXT]20161024.2041.43.DM.Words.7787.htm2019-11-05 22:24 68k
[TXT]20161024.2046.59.DM.Xymoron-VI.7787.htm2019-11-05 22:24 116k
[TXT]20161024.2057.43.DM.ZerckTE.7787.htm2019-11-05 22:24 80k
[TXT]20161024.2125.27.DM.AggressiveII.7787.htm2019-11-05 22:24 80k
[TXT]20161024.2131.59.DM.Agony.7787.htm2019-11-05 22:24 84k
[TXT]20161024.2139.35.DM.AloneintheDark.7787.htm2019-11-05 22:24 80k
[TXT]20161024.2149.27.DM.AnotherBrickInDeW00T.7787.htm2019-11-05 22:24 112k
[TXT]20161024.2157.41.DM.AreaN23-TE.7787.htm2019-11-05 22:24 136k
[TXT]20161024.2206.46.DM.Arkhan-LP.7787.htm2019-11-05 22:24 116k
[TXT]20161024.2218.38.DM.Bakuretsu-se.7787.htm2019-11-05 22:24 100k
[TXT]20161024.2226.14.DM.BoneMill][st.7787.htm2019-11-05 22:24 64k
[TXT]20161024.2234.58.DM.BorneoSE.7787.htm2019-11-05 22:24 92k
[TXT]20161024.2239.23.DM.Bralta.7787.htm2019-11-05 22:24 60k
[TXT]20161024.2244.10.DM.Cityzen-se.7787.htm2019-11-05 22:24 76k
[TXT]20161024.2248.40.DM.Coke.7787.htm2019-11-05 22:24 76k
[TXT]20161024.2253.10.DM.CrypticSE.7787.htm2019-11-05 22:24 108k
[TXT]20161025.0157.12.DM.Curse][-te.7787.htm2019-11-05 22:24 108k
[TXT]20161025.0207.05.DM.DarkMindII.7787.htm2019-11-05 22:24 80k
[TXT]20161025.0212.55.DM.Doox.7787.htm2019-11-05 22:24 84k
[TXT]20161025.0217.45.DM.Draven.7787.htm2019-11-05 22:24 72k
[TXT]20161025.0224.10.DM.EmpoweredIV.7787.htm2019-11-05 22:24 72k
[TXT]20161025.0231.12.DM.Equilibrium-SE.7787.htm2019-11-05 22:24 84k
[TXT]20161025.0236.22.DM.Fear-se.7787.htm2019-11-05 22:24 80k
[TXT]20161025.0438.01.DM.FoomFlood.7787.htm2019-11-05 22:24 84k
[TXT]20161025.0443.39.DM.Guardia-SE.7787.htm2019-11-05 22:24 88k
[TXT]20161025.0451.19.DM.HellsGateIII.7787.htm2019-11-05 22:24 92k
[TXT]20161025.0458.37.DM.LastCrusaderIII-TV.7787.htm2019-11-05 22:24 144k
[TXT]20161025.1421.05.DM.Liandri.7787.htm2019-11-05 22:24 92k
[TXT]20161025.1428.59.DM.Lostlands-se.7787.htm2019-11-05 22:24 76k
[TXT]20161025.1439.08.DM.MadScientistsLair-se.7787.htm2019-11-05 22:24 88k
[TXT]20161025.1449.57.DM.Magma-se.7787.htm2019-11-05 22:24 60k
[TXT]20161025.1655.41.DM.Malevolence.7787.htm2019-11-05 22:24 80k
[TXT]20161025.1700.48.DM.MenaceV3-se.7787.htm2019-11-05 22:24 76k
[TXT]20161025.1814.33.DM.MiseryTE.7787.htm2019-11-05 22:24 76k
[TXT]20161025.1819.15.DM.Mojo2013.7787.htm2019-11-05 22:24 76k
[TXT]20161025.1825.10.DM.MoonbaseSE.7787.htm2019-11-05 22:24 108k
[TXT]20161025.1831.21.DM.Nexo-se.7787.htm2019-11-05 22:24 72k
[TXT]20161025.1849.28.DM.Olden-se.7787.htm2019-11-05 22:24 64k
[TXT]20161025.1854.00.DM.Outland-ve.7787.htm2019-11-05 22:24 60k
[TXT]20161025.1858.04.DM.Pier41se.7787.htm2019-11-05 22:24 60k
[TXT]20161025.1901.48.DM.RadStorm-te.7787.htm2019-11-05 22:24 100k
[TXT]20161025.2003.52.DM.Raze-se.7787.htm2019-11-05 22:24 64k
[TXT]20161025.2145.37.DM.RealWorldGoneBad.7787.htm2019-11-05 22:24 72k
[TXT]20161025.2150.07.DM.Remorc-se.7787.htm2019-11-05 22:24 76k
[TXT]20161025.2155.57.DM.Revenge-fe.7787.htm2019-11-05 22:24 68k
[TXT]20161026.0142.31.DM.RideTheDragon.7787.htm2019-11-05 22:24 64k
[TXT]20161026.0147.38.DM.ScytheTE.7787.htm2019-11-05 22:24 84k
[TXT]20161026.0155.48.DM.StalwartXL.7787.htm2019-11-05 22:24 84k
[TXT]20161026.0203.01.DM.StreetFE.7787.htm2019-11-05 22:24 80k
[TXT]20161026.0209.18.DM.TerraIII.7787.htm2019-11-05 22:24 96k
[TXT]20161026.0218.11.DM.Toll.7787.htm2019-11-05 22:24 76k
[TXT]20161026.0224.03.DM.UnitIII.7787.htm2019-11-05 22:24 120k
[TXT]20161026.0321.06.DM.VengadorV.7787.htm2019-11-05 22:24 84k
[TXT]20161026.1124.05.DM.VerdanaTE.7787.htm2019-11-05 22:24 68k
[TXT]20161026.1129.19.DM.Viridian-TOURNEY.7787.htm2019-11-05 22:24 84k
[TXT]20161026.1142.48.DM.Words.7787.htm2019-11-05 22:24 80k
[TXT]20161026.1848.43.DM.Xymoron-VI.7787.htm2019-11-05 22:24 80k
[TXT]20161026.1855.39.DM.ZerckTE.7787.htm2019-11-05 22:24 108k
[TXT]20161026.1907.49.DM.AggressiveII.7787.htm2019-11-05 22:24 84k
[TXT]20161026.2008.42.DM.Agony.7787.htm2019-11-05 22:24 84k
[TXT]20161026.2016.20.DM.AloneintheDark.7787.htm2019-11-05 22:24 80k
[TXT]20161026.2023.39.DM.AnotherBrickInDeW00T.7787.htm2019-11-05 22:24 108k
[TXT]20161026.2031.14.DM.AreaN23-TE.7787.htm2019-11-05 22:24 104k
[TXT]20161026.2038.27.DM.Arkhan-LP.7787.htm2019-11-05 22:24 120k
[TXT]20161026.2324.16.DM.Bakuretsu-se.7787.htm2019-11-05 22:24 76k
[TXT]20161026.2332.39.DM.BoneMill][st.7787.htm2019-11-05 22:25 72k
[TXT]20161027.1818.50.DM.BorneoSE.7787.htm2019-11-05 22:25 140k
[TXT]20161027.1830.19.DM.Bralta.7787.htm2019-11-05 22:25 64k
[TXT]20161027.1836.13.DM.Cityzen-se.7787.htm2019-11-05 22:25 80k
[TXT]20161027.1841.34.DM.Coke.7787.htm2019-11-05 22:25 84k
[TXT]20161027.1849.12.DM.CrypticSE.7787.htm2019-11-05 22:25 80k
[TXT]20161027.1856.50.DM.Curse][-te.7787.htm2019-11-05 22:25 84k
[TXT]20161027.1904.57.DM.DarkMindII.7787.htm2019-11-05 22:25 72k
[TXT]20161027.1934.14.DM.Doox.7787.htm2019-11-05 22:25 88k
[TXT]20161027.1941.19.DM.Draven.7787.htm2019-11-05 22:25 64k
[TXT]20161027.1946.12.DM.EmpoweredIV.7787.htm2019-11-05 22:25 68k
[TXT]20161027.1952.18.DM.Equilibrium-SE.7787.htm2019-11-05 22:25 100k
[TXT]20161027.1959.17.DM.Fear-se.7787.htm2019-11-05 22:25 120k
[TXT]20161027.2010.25.DM.FoomFlood.7787.htm2019-11-05 22:25 136k
[TXT]20161027.2023.31.DM.Guardia-SE.7787.htm2019-11-05 22:25 88k
[TXT]20161027.2033.57.DM.HellsGateIII.7787.htm2019-11-05 22:25 120k
[TXT]20161027.2041.27.DM.LastCrusaderIII-TV.7787.htm2019-11-05 22:25 100k
[TXT]20161027.2101.35.DM.Liandri.7787.htm2019-11-05 22:25 88k
[TXT]20161027.2107.36.DM.Lostlands-se.7787.htm2019-11-05 22:25 64k
[TXT]20161027.2112.23.DM.MadScientistsLair-se.7787.htm2019-11-05 22:25 64k
[TXT]20161027.2116.53.DM.Magma-se.7787.htm2019-11-05 22:25 64k
[TXT]20161027.2121.37.DM.Malevolence.7787.htm2019-11-05 22:25 80k
[TXT]20161027.2219.13.DM.MenaceV3-se.7787.htm2019-11-05 22:25 80k
[TXT]20161027.2225.28.DM.MiseryTE.7787.htm2019-11-05 22:25 84k
[TXT]20161027.2233.52.DM.Mojo2013.7787.htm2019-11-05 22:25 96k
[TXT]20161027.2243.10.DM.MoonbaseSE.7787.htm2019-11-05 22:25 144k
[TXT]20161027.2250.57.DM.Nexo-se.7787.htm2019-11-05 22:25 80k
[TXT]20161027.2258.09.DM.Olden-se.7787.htm2019-11-05 22:25 72k
[TXT]20161027.2305.26.DM.Outland-ve.7787.htm2019-11-05 22:25 68k
[TXT]20161027.2311.22.DM.Pier41se.7787.htm2019-11-05 22:25 64k
[TXT]20161027.2318.06.DM.RadStorm-te.7787.htm2019-11-05 22:25 60k
[TXT]20161027.2321.52.DM.Raze-se.7787.htm2019-11-05 22:25 80k
[TXT]20161027.2329.31.DM.RealWorldGoneBad.7787.htm2019-11-05 22:25 88k
[TXT]20161028.0051.31.DM.Remorc-se.7787.htm2019-11-05 22:25 80k
[TXT]20161028.0059.08.DM.Revenge-fe.7787.htm2019-11-05 22:25 72k
[TXT]20161028.0108.40.DM.RideTheDragon.7787.htm2019-11-05 22:25 80k
[TXT]20161028.0116.40.DM.ScytheTE.7787.htm2019-11-05 22:25 92k
[TXT]20161028.0127.18.DM.StalwartXL.7787.htm2019-11-05 22:25 68k
[TXT]20161028.0132.06.DM.StreetFE.7787.htm2019-11-05 22:25 72k
[TXT]20161028.0136.28.DM.TerraIII.7787.htm2019-11-05 22:25 92k
[TXT]20161028.0144.21.DM.Toll.7787.htm2019-11-05 22:25 72k
[TXT]20161028.0151.52.DM.UnitIII.7787.htm2019-11-05 22:25 132k
[TXT]20161028.0203.51.DM.VengadorV.7787.htm2019-11-05 22:25 88k
[TXT]20161028.0210.17.DM.VerdanaTE.7787.htm2019-11-05 22:25 76k
[TXT]20161028.0217.33.DM.Viridian-TOURNEY.7787.htm2019-11-05 22:25 68k
[TXT]20161028.0223.36.DM.Words.7787.htm2019-11-05 22:25 72k
[TXT]20161028.0231.10.DM.Xymoron-VI.7787.htm2019-11-05 22:25 92k
[TXT]20161028.0238.24.DM.ZerckTE.7787.htm2019-11-05 22:25 100k
[TXT]20161028.0348.34.DM.AggressiveII.7787.htm2019-11-05 22:25 112k
[TXT]20161028.1200.20.DM.Agony.7787.htm2019-11-05 22:25 80k
[TXT]20161028.1659.16.DM.AloneintheDark.7787.htm2019-11-05 22:25 76k
[TXT]20161028.2016.15.DM.AnotherBrickInDeW00T.7787.htm2019-11-05 22:25 104k
[TXT]20161028.2135.08.DM.AreaN23-TE.7787.htm2019-11-05 22:25 132k
[TXT]20161028.2146.48.DM.Arkhan-LP.7787.htm2019-11-05 22:25 144k
[TXT]20161028.2157.53.DM.Bakuretsu-se.7787.htm2019-11-05 22:25 132k
[TXT]20161028.2207.41.DM.BoneMill][st.7787.htm2019-11-05 22:25 124k
[TXT]20161028.2227.18.DM.BorneoSE.7787.htm2019-11-05 22:25 168k
[TXT]20161028.2238.15.DM.Bralta.7787.htm2019-11-05 22:25 60k
[TXT]20161028.2256.23.DM.Cityzen-se.7787.htm2019-11-05 22:25 76k
[TXT]20161028.2300.23.DM.Coke.7787.htm2019-11-05 22:25 88k
[TXT]20161028.2305.32.DM.CrypticSE.7787.htm2019-11-05 22:25 92k
[TXT]20161028.2312.35.DM.Curse][-te.7787.htm2019-11-05 22:25 100k
[TXT]20161028.2318.43.DM.DarkMindII.7787.htm2019-11-05 22:25 84k
[TXT]20161028.2326.37.DM.Doox.7787.htm2019-11-05 22:25 92k
[TXT]20161028.2333.52.DM.Draven.7787.htm2019-11-05 22:25 88k
[TXT]20161028.2347.37.DM.EmpoweredIV.7787.htm2019-11-05 22:25 120k
[TXT]20161028.2359.20.DM.Equilibrium-SE.7787.htm2019-11-05 22:25 72k
[TXT]20161029.0003.34.DM.Fear-se.7787.htm2019-11-05 22:25 84k
[TXT]20161029.0013.05.DM.FoomFlood.7787.htm2019-11-05 22:25 100k
[TXT]20161029.0134.02.DM.Guardia-SE.7787.htm2019-11-05 22:25 120k
[TXT]20161029.0143.40.DM.HellsGateIII.7787.htm2019-11-05 22:25 116k
[TXT]20161029.0151.17.DM.LastCrusaderIII-TV.7787.htm2019-11-05 22:25 140k
[TXT]20161029.0158.16.DM.Liandri.7787.htm2019-11-05 22:25 124k
[TXT]20161029.0206.07.DM.Lostlands-se.7787.htm2019-11-05 22:25 100k
[TXT]20161029.0213.34.DM.MadScientistsLair-se.7787.htm2019-11-05 22:25 80k
[TXT]20161029.0223.11.DM.Magma-se.7787.htm2019-11-05 22:25 68k
[TXT]20161029.0538.55.DM.Malevolence.7787.htm2019-11-05 22:25 76k
[TXT]20161029.0543.34.DM.MenaceV3-se.7787.htm2019-11-05 22:25 80k
[TXT]20161029.1455.15.DM.MiseryTE.7787.htm2019-11-05 22:25 84k
[TXT]20161029.1539.46.DM.Mojo2013.7787.htm2019-11-05 22:25 76k
[TXT]20161029.1628.06.DM.MoonbaseSE.7787.htm2019-11-05 22:25 108k
[TXT]20161029.1633.40.DM.Nexo-se.7787.htm2019-11-05 22:25 84k
[TXT]20161029.1737.40.DM.Olden-se.7787.htm2019-11-05 22:25 84k
[TXT]20161029.1907.25.DM.Outland-ve.7787.htm2019-11-05 22:25 64k
[TXT]20161029.1954.13.DM.Pier41se.7787.htm2019-11-05 22:25 60k
[TXT]20161029.1958.44.DM.RadStorm-te.7787.htm2019-11-05 22:25 60k
[TXT]20161029.2003.13.DM.Raze-se.7787.htm2019-11-05 22:25 68k
[TXT]20161029.2203.06.DM.RealWorldGoneBad.7787.htm2019-11-05 22:25 76k
[TXT]20161029.2207.25.DM.Remorc-se.7787.htm2019-11-05 22:25 76k
[TXT]20161029.2215.24.DM.Revenge-fe.7787.htm2019-11-05 22:25 76k
[TXT]20161029.2224.01.DM.RideTheDragon.7787.htm2019-11-05 22:25 92k
[TXT]20161029.2234.45.DM.ScytheTE.7787.htm2019-11-05 22:25 96k
[TXT]20161029.2247.54.DM.StalwartXL.7787.htm2019-11-05 22:25 72k
[TXT]20161029.2252.43.DM.StreetFE.7787.htm2019-11-05 22:25 88k
[TXT]20161029.2259.22.DM.TerraIII.7787.htm2019-11-05 22:25 148k
[TXT]20161029.2310.34.DM.Toll.7787.htm2019-11-05 22:25 72k
[TXT]20161029.2319.35.DM.UnitIII.7787.htm2019-11-05 22:26 124k
[TXT]20161029.2329.19.DM.VengadorV.7787.htm2019-11-05 22:26 104k
[TXT]20161029.2336.47.DM.VerdanaTE.7787.htm2019-11-05 22:26 80k
[TXT]20161029.2344.41.DM.Viridian-TOURNEY.7787.htm2019-11-05 22:26 72k
[TXT]20161029.2352.55.DM.Words.7787.htm2019-11-05 22:26 100k
[TXT]20161030.0002.37.DM.Xymoron-VI.7787.htm2019-11-05 22:26 76k
[TXT]20161030.0008.35.DM.ZerckTE.7787.htm2019-11-05 22:26 76k
[TXT]20161030.0015.02.DM.AggressiveII.7787.htm2019-11-05 22:26 96k
[TXT]20161030.0158.24.DM.Agony.7787.htm2019-11-05 22:26 84k
[TXT]20161030.0207.10.DM.AloneintheDark.7787.htm2019-11-05 22:26 84k
[TXT]20161030.0710.34.DM.AnotherBrickInDeW00T.7787.htm2019-11-05 22:26 112k
[TXT]20161030.0719.22.DM.AreaN23-TE.7787.htm2019-11-05 22:26 120k
[TXT]20161030.0729.02.DM.Arkhan-LP.7787.htm2019-11-05 22:26 88k
[TXT]20161030.1041.28.DM.Bakuretsu-se.7787.htm2019-11-05 22:26 72k
[TXT]20161030.1046.09.DM.BoneMill][st.7787.htm2019-11-05 22:26 68k
[TXT]20161030.1250.31.DM.BorneoSE.7787.htm2019-11-05 22:26 108k
[TXT]20161030.1619.43.DM.Bralta.7787.htm2019-11-05 22:26 76k
[TXT]20161030.1625.51.DM.Cityzen-se.7787.htm2019-11-05 22:26 92k
[TXT]20161030.1631.37.DM.Coke.7787.htm2019-11-05 22:26 104k
[TXT]20161030.1638.28.DM.CrypticSE.7787.htm2019-11-05 22:26 104k
[TXT]20161030.1700.08.DM.Curse][-te.7787.htm2019-11-05 22:26 120k
[TXT]20161030.1714.45.DM.DarkMindII.7787.htm2019-11-05 22:26 72k
[TXT]20161030.1741.14.DM.Draven.7787.htm2019-11-05 22:26 92k
[TXT]20161030.1747.19.DM.EmpoweredIV.7787.htm2019-11-05 22:26 64k
[TXT]20161030.1752.04.DM.Equilibrium-SE.7787.htm2019-11-05 22:26 76k
[TXT]20161030.1912.38.DM.Fear-se.7787.htm2019-11-05 22:26 64k
[TXT]20161030.1918.10.DM.FoomFlood.7787.htm2019-11-05 22:26 72k
[TXT]20161030.1923.32.DM.ForWhomTheBellTollls.7787.htm2019-11-05 22:26 80k
[TXT]20161030.1929.44.DM.GaugeLoathing.7787.htm2019-11-05 22:26 80k
[TXT]20161030.1935.38.DM.Gris-se.7787.htm2019-11-05 22:26 76k
[TXT]20161030.1940.52.DM.Liandri.7787.htm2019-11-05 22:26 84k
[TXT]20161030.1946.10.DM.Lostlands-se.7787.htm2019-11-05 22:26 64k
[TXT]20161030.1951.01.DM.MadScientistsLair-se.7787.htm2019-11-05 22:26 84k
[TXT]20161030.2235.23.DM.Magma-se.7787.htm2019-11-05 22:26 64k
[TXT]20161031.0001.31.DM.Malevolence.7787.htm2019-11-05 22:26 104k
[TXT]20161031.0014.24.DM.MenaceV3-se.7787.htm2019-11-05 22:26 72k
[TXT]20161031.1510.38.DM.MiseryTE.7787.htm2019-11-05 22:26 88k
[TXT]20161031.1517.42.DM.Mojo2013.7787.htm2019-11-05 22:26 116k
[TXT]20161031.1527.25.DM.MoonbaseSE.7787.htm2019-11-05 22:26 124k
[TXT]20161031.1534.08.DM.Olden-se.7787.htm2019-11-05 22:26 84k
[TXT]20161031.1541.57.DM.Outland-ve.7787.htm2019-11-05 22:26 88k
[TXT]20161031.1549.10.DM.Pier41se.7787.htm2019-11-05 22:26 64k
[TXT]20161031.1554.16.DM.Quartet-se.7787.htm2019-11-05 22:26 76k
[TXT]20161031.1844.08.DM.RadStorm-te.7787.htm2019-11-05 22:26 60k
[TXT]20161031.1849.03.DM.RealWorldGoneBad.7787.htm2019-11-05 22:26 68k
[TXT]20161031.1852.26.DM.Remorc-se.7787.htm2019-11-05 22:26 96k
[TXT]20161031.1902.47.DM.Revenge-fe.7787.htm2019-11-05 22:26 64k
[TXT]20161031.1915.29.DM.RideTheDragon.7787.htm2019-11-05 22:26 56k
[TXT]20161031.1919.07.DM.ScytheTE.7787.htm2019-11-05 22:26 92k
[TXT]20161031.1925.43.DM.StalwartXL.7787.htm2019-11-05 22:26 72k
[TXT]20161031.1930.03.DM.StreetFE.7787.htm2019-11-05 22:26 72k
[TXT]20161031.1934.31.DM.SweetNothings-SE.7787.htm2019-11-05 22:26 76k
[TXT]20161031.1945.04.DM.TerraIII.7787.htm2019-11-05 22:26 92k
[TXT]20161031.2106.16.DM.Toll.7787.htm2019-11-05 22:26 68k
[TXT]20161031.2112.30.DM.UnitIII.7787.htm2019-11-05 22:26 112k
[TXT]20161031.2137.37.DM.VengadorV.7787.htm2019-11-05 22:26 84k
[TXT]20161031.2141.53.DM.VerdanaTE.7787.htm2019-11-05 22:26 68k
[TXT]20161031.2146.47.DM.Viridian-TOURNEY.7787.htm2019-11-05 22:26 84k
[TXT]20161031.2319.05.DM.Words.7787.htm2019-11-05 22:26 92k
[TXT]20161031.2330.33.DM.Xymoron-VI.7787.htm2019-11-05 22:26 100k
[TXT]20161031.2341.36.DM.Z-Axis-Inspector.7787.htm2019-11-05 22:26 68k
Proudly Served by LiteSpeed Web Server at www.birdieman.com Port 80